GFSWCAN_sfc_30mbdewp_000.txt.gz
Dewpoint
51 51 52 52 51 51 51 52 52 52 52 52 52 53 53 51 50 51 51 55 48 44 45 45 44 41 41 39 36 38 36 37 38 35 33 31 30 31 32 30 26 25 25 27 29 27 24 33 33 31 32 35 35 36
51 51 50 51 51 51 52 52 52 52 52 52 52 52 53 51 50 51 48 54 53 46 44 51 50 50 48 43 42 41 38 37 38 36 35 32 32 34 31 28 32 28 28 26 27 26 31 33 34 35 37 35 36 39
50 50 50 50 51 51 51 51 51 51 52 52 52 52 52 52 51 51 51 53 49 45 44 44 42 47 49 49 48 42 40 42 41 40 37 36 34 35 32 32 35 33 33 31 31 31 32 34 35 35 36 38 42 42
48 48 49 49 49 50 50 50 50 50 50 51 51 52 52 52 51 50 49 52 48 44 42 41 45 45 47 47 47 47 44 45 45 44 40 39 36 39 36 37 35 36 38 35 34 35 35 35 35 37 40 41 38 38
46 47 47 48 49 49 49 49 50 50 50 49 50 51 51 51 51 50 50 51 51 46 41 40 43 44 45 46 46 46 47 46 44 42 40 38 39 39 38 37 36 37 35 34 33 35 35 36 39 37 37 37 37 35
45 46 46 47 47 47 48 48 49 49 49 49 49 50 50 50 50 49 45 48 50 52 45 40 43 43 44 44 44 44 45 45 45 42 40 40 40 38 36 34 35 36 38 38 37 39 38 40 40 39 35 37 35 33
45 46 46 46 46 46 46 46 47 48 48 49 49 49 49 49 50 47 44 45 51 51 44 39 38 40 40 41 42 43 44 44 44 43 41 41 40 41 37 34 35 36 37 37 38 39 39 38 36 35 31 28 27 27
45 46 45 45 45 46 46 46 46 47 47 48 49 49 49 49 48 45 46 48 52 47 42 39 36 36 41 38 38 39 38 39 42 42 40 39 39 39 35 36 37 37 38 38 39 38 37 36 31 26 27 28 29 29
45 46 45 44 44 45 46 45 47 47 47 48 48 48 45 44 42 43 46 46 45 44 38 35 33 33 40 38 37 37 37 35 37 35 37 38 35 33 34 36 37 37 34 34 33 33 32 29 27 29 28 28 30 30
45 45 45 44 44 44 46 46 46 47 47 47 43 40 37 40 46 45 41 40 39 36 37 33 36 35 38 36 34 35 34 32 30 32 36 34 32 34 34 35 36 34 34 34 30 30 31 26 24 25 28 30 30 29
44 44 44 43 43 44 45 45 43 42 43 41 38 37 42 46 42 37 34 34 33 32 32 32 34 35 38 33 33 34 31 31 26 25 30 27 28 30 30 32 34 34 34 32 28 25 24 23 23 26 28 30 30 30
45 45 44 43 44 44 44 45 42 42 42 41 40 43 42 39 36 33 31 32 30 29 32 31 33 36 36 38 33 31 28 29 23 27 29 24 26 28 30 29 28 26 25 25 25 25 26 25 25 28 30 31 31 30
44 45 44 43 43 44 45 42 41 42 43 40 35 36 34 34 29 27 24 27 26 32 33 35 32 34 34 34 31 29 25 23 28 25 22 23 26 29 29 29 28 28 27 27 28 29 28 27 28 29 31 31 30 30
43 45 44 43 43 43 39 40 41 39 38 32 29 27 29 26 27 28 28 29 33 34 34 34 32 30 30 26 27 23 24 25 23 20 21 22 24 27 28 28 26 24 25 26 29 29 29 28 28 28 32 31 30 31
44 45 44 43 42 40 39 39 37 38 34 29 27 17 24 29 31 31 33 33 34 35 33 30 30 29 26 24 25 23 22 19 19 19 21 23 24 24 23 25 27 25 24 25 28 29 29 28 27 28 30 32 31 31
44 42 41 42 41 39 38 38 38 35 28 29 28 25 28 27 27 29 30 31 34 33 31 29 26 22 21 21 20 18 18 16 17 22 22 24 24 24 25 26 26 25 25 27 28 29 28 27 26 27 31 32 31 31
38 38 42 41 40 38 37 35 32 30 27 22 25 29 28 27 27 29 29 32 34 30 22 23 21 12 19 19 19 21 18 16 23 22 23 25 25 25 26 25 25 26 26 27 27 27 26 26 27 29 30 31 29 30
38 41 41 40 37 35 34 33 30 25 21 25 24 24 28 28 29 29 30 33 32 29 25 18 20 17 16 14 14 15 18 21 22 23 25 26 25 25 26 25 26 27 27 27 27 26 26 26 27 27 29 29 30 30
40 39 39 38 35 31 27 30 29 22 22 24 26 28 27 26 27 28 28 31 33 31 26 22 18 16 14 14 11 11 13 20 24 23 23 24 25 26 26 27 27 27 27 27 27 27 27 28 28 29 30 30 30 30
39 38 36 38 37 29 27 27 29 26 23 24 24 25 25 24 26 28 29 30 30 28 26 25 21 18 18 18 21 22 22 23 23 23 23 24 25 26 27 27 26 27 27 28 28 27 28 28 29 30 31 31 30 29
37 39 39 37 34 31 26 26 25 25 23 22 24 24 23 25 26 26 27 29 25 24 22 24 22 22 23 22 23 23 23 23 23 24 24 25 26 26 25 27 28 29 28 29 28 29 29 29 30 31 31 31 31 32
36 38 36 36 30 28 26 26 21 23 22 22 21 22 21 22 23 24 26 26 25 22 22 21 20 21 21 21 21 23 24 25 26 27 27 27 25 24 27 29 29 29 30 30 30 31 31 32 32 32 32 31 31 29
35 34 32 30 25 23 19 27 23 24 22 21 21 20 19 20 21 26 24 24 24 24 24 23 23 24 24 24 26 26 26 26 25 25 24 25 25 28 29 28 28 29 29 30 32 31 31 32 32 32 31 30 29 28
35 29 25 24 21 20 23 23 24 23 21 21 20 19 18 19 21 22 20 18 19 21 22 22 24 24 25 25 25 24 24 25 25 25 25 27 29 27 27 27 28 30 31 32 32 31 31 31 31 30 30 29 28 27
24 24 24 21 23 22 19 20 20 20 19 19 18 16 16 19 17 16 15 14 15 17 19 21 23 24 23 23 24 24 26 26 25 24 26 28 27 27 27 28 28 27 29 31 30 31 31 31 30 30 29 28 28 28
21 23 22 20 21 19 19 17 19 18 17 17 17 16 16 16 15 14 15 14 13 14 15 16 18 21 23 26 26 26 24 27 29 28 27 27 27 27 27 26 26 27 29 32 30 30 29 29 28 27 27 28 28 28
20 21 24 24 22 21 19 17 16 16 15 14 15 15 15 15 15 14 15 16 15 17 24 25 25 24 24 24 25 26 29 29 29 28 28 28 28 28 27 26 26 28 31 31 30 30 29 28 28 28 28 28 28 28
23 20 20 22 22 21 17 17 17 16 15 17 15 13 13 14 11 13 15 22 23 24 25 25 26 26 24 25 25 28 29 27 27 27 27 27 27 28 29 30 31 30 30 31 30 30 30 30 30 30 29 29 28 28
23 23 22 21 20 19 19 18 17 18 18 16 13 12 12 14 15 15 18 21 26 27 26 25 26 28 31 30 30 31 30 29 26 24 24 23 24 25 25 25 27 28 29 30 30 30 30 30 30 30 30 29 29 28
21 23 21 17 18 19 19 19 17 17 18 20 20 19 20 20 21 25 25 25 25 26 27 27 28 29 29 29 28 26 27 29 30 28 25 23 23 25 27 29 28 28 29 28 29 28 27 27 28 29 28 27 26 26
21 21 19 16 15 15 17 18 19 21 21 21 23 22 22 23 24 23 22 23 26 28 29 28 28 27 27 26 25 25 24 23 22 21 21 20 21 22 24 26 28 28 27 26 26 26 25 26 26 25 24 24 24 23
21 20 18 17 18 19 21 21 21 20 20 19 20 21 22 24 24 19 19 19 19 18 18 19 19 19 21 23 24 22 21 19 18 18 18 18 18 18 19 19 21 24 26 26 25 24 24 24 24 24 23 23 22 20
19 18 18 19 18 17 16 17 17 17 16 17 18 19 21 22 21 16 17 18 15 14 14 15 16 18 20 22 22 20 19 20 20 20 19 18 16 14 14 15 17 20 22 21 20 20 18 17 16 15 14 14 13 11

GFSWCAN_sfc_30mbdewp_003.txt.gz
Dewpoint
50 51 51 52 51 51 51 52 52 52 52 51 52 53 53 51 50 51 52 53 45 40 42 45 43 40 40 37 34 37 36 37 37 34 32 31 29 30 31 29 26 25 24 25 27 25 24 32 34 31 33 34 35 36
51 50 51 52 51 51 51 51 51 52 52 52 52 52 53 51 50 51 49 53 51 43 41 50 50 48 44 41 39 39 37 35 37 35 34 31 31 32 30 28 31 28 28 26 27 27 30 32 33 34 36 36 36 39
50 50 50 51 51 51 51 51 51 51 51 51 52 52 52 52 50 51 50 51 47 42 42 43 42 45 50 47 46 41 39 40 39 39 36 35 34 34 33 33 35 35 36 33 32 33 32 35 37 36 37 39 42 38
48 49 50 49 50 51 51 51 51 51 51 51 51 52 52 52 50 49 48 49 45 42 39 39 44 44 47 48 47 46 44 44 43 41 38 37 36 38 36 37 36 36 38 36 35 36 37 37 37 40 41 39 37 37
47 48 48 49 49 50 50 49 49 49 50 50 50 51 52 51 50 49 49 50 49 44 39 40 43 44 44 46 45 46 46 45 44 41 40 38 38 38 38 37 36 38 35 35 35 37 36 37 41 40 37 36 36 34
46 47 47 47 48 48 48 48 49 50 50 49 49 49 50 50 50 49 46 48 49 49 43 40 42 42 43 43 44 43 44 44 43 41 40 40 40 38 35 34 35 37 39 40 38 38 42 41 35 34 34 33 32 34
45 46 46 46 46 47 47 48 48 49 49 49 49 49 49 50 50 47 44 45 49 48 42 39 38 39 39 40 41 41 43 43 43 42 41 39 40 41 37 34 37 38 38 38 38 40 39 37 35 32 29 28 23 25
45 45 45 45 46 46 46 47 47 47 48 48 49 49 49 49 48 46 47 49 50 46 43 38 37 37 40 37 38 38 38 39 42 41 40 38 39 39 35 36 36 37 37 37 38 39 38 36 33 27 26 28 28 29
45 45 44 44 45 45 45 46 47 47 47 48 48 48 46 45 43 44 47 47 46 45 39 36 34 33 39 37 36 37 36 35 37 36 36 38 36 34 36 36 35 35 35 35 35 35 34 29 29 24 24 24 27 28
46 45 44 44 44 45 45 46 47 47 48 47 43 41 38 40 46 46 43 42 41 38 37 35 36 35 39 36 35 35 34 33 31 33 35 33 33 34 34 31 33 34 35 34 32 30 25 19 21 22 21 24 28 29
45 44 43 43 44 45 44 44 47 46 44 40 38 37 42 46 41 37 35 36 35 33 33 33 34 35 38 34 34 34 31 31 26 25 29 26 26 28 30 32 33 33 30 26 25 25 24 25 25 22 22 26 29 29
44 44 43 43 44 44 44 42 42 43 41 40 41 43 41 39 35 34 32 32 31 30 32 31 33 36 36 38 33 31 28 28 23 27 28 24 25 27 28 27 26 26 26 25 26 27 27 29 27 26 26 27 29 30
45 44 43 43 44 44 43 42 43 43 42 38 37 36 35 34 30 28 25 27 28 31 33 33 32 34 34 34 31 29 26 24 27 26 23 22 24 26 26 27 26 27 26 24 23 26 29 29 29 27 26 27 30 30
45 44 43 43 43 41 40 41 40 38 36 30 29 29 29 27 28 27 26 26 30 34 34 33 31 30 29 28 26 22 22 24 20 20 18 21 22 19 21 24 26 26 24 21 22 25 26 27 27 27 26 25 28 30
45 45 43 42 42 40 39 38 38 36 32 29 23 19 26 27 30 32 33 33 34 35 33 31 30 27 25 23 24 21 21 18 18 18 20 22 22 24 24 25 26 24 24 24 25 26 26 26 26 26 26 25 27 31
44 44 42 42 40 39 38 38 36 33 28 29 27 24 28 27 28 30 32 31 34 33 30 27 24 22 22 19 19 17 16 13 15 20 21 23 24 25 24 24 25 26 25 25 26 26 27 26 25 26 26 26 28 30
41 39 42 40 39 39 37 34 31 31 25 22 24 28 26 26 25 28 29 32 34 29 21 23 18 13 18 18 17 19 17 16 20 19 21 24 25 24 24 25 25 25 26 26 27 27 27 27 26 25 25 26 27 28
39 42 41 40 37 34 34 32 28 24 22 24 24 25 27 27 29 29 29 31 33 30 24 21 20 17 15 15 16 17 19 20 21 22 23 24 25 24 25 25 26 26 27 27 27 26 27 27 26 27 27 27 27 28
41 41 40 39 34 30 28 31 28 20 20 24 25 26 25 26 27 27 27 31 33 30 27 23 19 16 14 15 12 11 11 15 21 21 22 24 24 24 25 25 26 26 27 26 27 28 28 28 28 28 28 29 29 30
41 40 39 37 33 28 25 28 28 25 23 24 24 26 26 25 26 27 29 29 30 30 28 25 22 18 17 17 18 18 20 22 22 20 21 22 24 25 25 26 27 27 27 28 28 28 27 28 28 29 30 30 30 30
38 39 38 35 33 28 26 25 24 24 23 22 23 24 22 25 25 26 26 29 28 26 24 24 23 22 23 24 24 23 23 23 22 22 22 23 25 26 26 26 26 28 28 27 27 28 29 28 29 31 32 31 32 32
38 38 35 33 28 25 26 25 21 23 21 21 21 22 21 22 23 24 26 25 26 23 22 21 21 21 22 22 21 23 22 22 24 25 26 26 25 25 24 25 28 26 27 27 28 28 30 30 31 31 31 31 32 30
35 33 31 29 23 20 20 26 22 23 20 21 21 19 19 19 20 25 24 24 24 24 24 24 24 24 24 24 24 24 25 25 25 26 25 25 25 24 25 27 26 26 26 27 28 29 31 31 31 30 30 31 29 28
33 29 25 23 19 19 22 22 24 23 21 21 19 17 17 17 20 22 20 20 21 23 23 23 24 24 24 24 24 24 25 26 25 25 25 24 24 24 27 26 26 27 28 28 29 29 31 31 31 30 29 29 28 28
23 24 21 19 21 20 17 19 20 21 19 18 19 18 15 17 17 17 17 15 14 15 16 18 20 22 21 21 22 23 24 25 25 24 23 23 25 26 25 25 25 27 27 27 27 29 30 30 30 29 28 28 28 27
18 22 20 19 19 19 18 17 18 17 16 17 17 16 14 15 14 12 14 12 12 12 12 11 13 16 20 23 22 21 21 24 25 23 24 26 27 26 25 25 25 24 25 28 30 29 28 28 29 29 27 26 26 27
19 20 23 22 21 20 18 15 15 16 16 16 14 14 15 13 13 14 16 17 15 15 17 20 21 21 21 22 22 24 24 24 26 26 27 27 27 27 27 27 26 26 29 29 28 28 27 28 28 29 28 28 27 27
22 20 19 22 22 19 16 15 16 15 14 15 13 14 13 13 11 14 15 16 16 20 22 24 25 25 25 25 25 27 27 25 26 27 26 25 26 25 26 28 27 26 26 27 28 29 28 28 28 29 29 29 28 29
23 22 20 20 19 20 20 18 16 16 17 16 13 12 12 14 14 14 15 16 19 23 23 23 24 24 26 29 29 29 30 30 27 24 23 22 24 25 24 25 27 29 28 26 27 29 29 29 28 28 28 28 30 30
21 22 22 21 21 20 21 20 17 16 17 19 19 18 18 18 19 21 21 22 23 24 24 26 27 27 28 29 28 28 27 26 27 26 24 22 21 21 23 25 26 27 27 27 26 25 25 24 26 25 25 26 26 26
19 21 19 16 16 15 17 16 15 17 17 18 19 19 20 21 19 17 16 17 19 21 20 20 22 21 21 21 22 22 23 19 19 19 18 17 17 17 17 18 19 21 25 25 24 23 22 22 23 24 24 23 23 23
20 19 18 16 15 16 16 19 19 18 19 18 19 19 18 19 20 13 15 14 13 13 13 14 15 16 18 19 20 19 19 18 17 17 17 16 15 13 12 13 15 17 20 22 21 20 19 18 17 16 17 20 19 16
17 15 14 17 17 16 15 14 13 13 11 12 14 15 16 17 13 11 16 16 14 13 12 13 14 16 18 20 19 18 18 18 18 18 18 16 14 11 9 8 10 13 15 16 16 15 14 13 11 10 10 9 8 7

GFSWCAN_sfc_30mbdewp_006.txt.gz
Dewpoint
49 50 50 51 51 51 51 52 52 52 51 51 52 52 52 50 50 51 52 51 44 38 41 44 41 38 39 36 33 37 36 36 36 34 32 31 29 29 30 28 25 24 23 24 27 25 22 30 32 32 32 36 36 37
50 50 50 50 51 51 51 51 51 52 52 51 51 52 52 51 50 50 49 50 49 40 39 49 49 47 41 39 37 37 35 35 37 34 33 31 30 29 29 28 31 28 28 27 30 29 30 32 36 35 35 37 37 39
49 50 50 50 51 51 51 51 51 51 51 52 52 52 52 51 50 50 50 49 44 41 41 42 42 45 49 47 44 38 38 39 38 38 34 33 32 33 31 32 33 35 37 34 33 33 36 38 37 39 41 40 38 38
47 48 49 49 50 51 51 51 51 51 51 51 51 52 52 51 50 49 48 47 44 41 38 38 43 42 45 48 47 45 42 43 41 39 37 36 35 37 35 36 36 37 36 36 35 37 37 37 40 40 39 39 38 37
47 47 47 49 49 49 51 51 51 50 50 51 51 51 52 51 49 49 49 50 48 42 38 38 43 43 44 44 45 46 45 44 42 41 39 38 38 38 37 37 35 38 37 35 32 35 39 40 40 40 38 36 35 33
46 46 46 47 48 48 49 50 50 49 50 50 49 50 51 51 50 49 45 47 49 47 41 36 41 41 41 42 43 44 45 44 43 42 40 40 40 37 35 33 35 36 37 38 37 40 40 41 40 37 34 31 30 31
46 46 46 46 46 47 47 48 49 49 49 49 49 50 50 51 50 47 43 44 49 46 40 37 37 38 39 40 40 41 42 42 42 41 40 38 38 40 36 34 35 36 38 39 38 39 39 35 34 33 31 28 26 25
45 45 45 46 46 46 47 47 47 48 49 49 49 49 49 49 48 47 47 49 49 44 42 37 37 36 39 36 37 38 38 39 41 41 39 38 38 38 35 36 37 36 36 36 37 38 38 35 31 26 22 22 21 22
45 44 44 45 45 45 46 47 47 47 48 48 48 48 47 45 44 44 47 47 46 43 40 36 34 34 39 37 36 36 36 35 37 35 36 37 35 33 36 31 31 32 33 35 36 34 30 23 25 24 23 23 21 21
45 44 44 44 45 46 46 46 47 47 47 47 45 42 38 41 46 46 43 42 42 39 37 35 36 35 39 36 35 36 34 32 30 33 34 33 32 33 30 33 35 34 33 32 30 23 23 24 23 23 23 23 23 25
45 44 43 44 45 44 46 47 47 47 45 41 38 37 42 46 41 38 36 35 35 34 34 34 35 35 38 35 35 34 32 31 26 25 29 27 26 27 28 26 27 26 26 25 25 25 24 25 26 27 26 24 24 25
45 43 43 43 45 45 43 46 45 42 41 40 42 43 41 39 36 34 32 32 32 30 32 32 33 36 35 38 34 31 29 28 23 28 27 24 26 27 28 27 27 27 25 22 23 22 24 26 27 28 28 28 27 27
44 43 43 43 44 43 42 43 43 43 41 37 38 36 35 33 29 28 26 28 29 31 32 33 32 33 34 34 31 29 25 23 26 25 23 23 23 21 21 24 24 25 22 21 22 23 24 25 26 26 25 26 26 26
44 43 43 44 43 41 42 41 39 38 34 29 31 29 29 27 29 28 26 26 29 33 33 33 31 30 29 29 27 23 22 24 22 20 17 21 20 20 23 25 24 21 22 23 23 25 25 25 25 25 25 25 25 24
44 43 43 43 40 40 39 38 36 36 32 27 24 25 27 27 29 32 33 33 33 34 33 31 29 28 25 24 23 21 21 18 17 17 19 20 22 24 24 21 21 22 23 24 25 25 25 25 25 25 26 26 25 25
44 43 42 42 40 39 38 36 35 30 28 28 25 23 27 28 28 30 32 32 34 33 31 27 24 24 24 20 20 17 16 13 14 19 19 21 24 25 24 22 23 24 25 25 26 26 26 26 26 27 26 25 25 25
43 40 42 40 39 37 35 33 32 30 23 22 23 27 25 25 25 28 30 32 33 29 25 23 18 17 18 18 16 18 15 15 18 16 20 23 23 22 22 24 24 24 25 25 26 26 26 27 26 25 26 27 27 27
40 42 40 39 35 35 34 30 26 24 22 23 22 25 28 26 27 28 29 30 32 27 23 22 20 16 14 12 14 16 19 20 20 19 21 22 23 23 24 24 25 25 26 26 26 26 26 27 27 27 27 28 28 28
41 41 39 36 32 30 30 30 27 21 18 23 24 25 25 27 28 26 28 30 32 29 25 23 20 17 15 16 14 12 13 13 17 20 22 22 23 23 23 25 25 25 26 26 26 27 28 28 28 27 27 27 28 29
41 40 37 34 31 26 26 28 26 24 20 23 24 26 25 25 25 26 28 30 30 31 28 25 22 20 17 17 17 17 18 19 21 21 20 21 22 23 24 25 26 26 27 27 27 26 26 26 27 27 28 29 30 30
38 38 36 33 30 27 25 25 24 23 23 22 23 23 22 24 25 25 26 28 28 26 24 25 24 24 24 23 23 23 23 23 22 21 20 20 23 25 25 26 26 26 26 26 25 25 25 27 29 30 29 28 28 30
37 38 34 32 26 25 24 24 22 23 21 21 20 21 21 21 22 23 26 24 23 24 23 21 21 22 22 22 21 23 23 23 23 24 23 24 23 24 24 24 24 25 26 24 25 26 27 27 28 30 30 28 29 30
34 32 30 25 21 19 22 24 22 22 17 19 20 18 18 19 19 24 22 23 24 24 24 23 22 23 23 24 24 24 24 24 24 24 25 25 25 25 24 23 23 25 25 25 25 26 27 27 27 31 31 30 29 28
32 27 24 22 18 19 22 21 22 22 21 20 17 15 15 16 19 20 19 19 22 23 23 22 24 24 24 24 24 23 24 25 25 25 25 24 24 23 22 23 25 25 25 26 26 27 26 27 31 30 30 29 28 27
24 24 19 19 21 19 17 19 19 19 17 16 18 17 16 16 18 17 18 17 15 14 14 15 18 20 19 18 19 20 22 23 22 21 23 23 23 21 23 25 24 24 25 24 25 25 28 29 28 27 29 29 28 27
18 22 18 17 18 18 16 16 16 17 16 17 17 15 12 14 14 12 13 13 11 11 11 12 14 13 17 21 20 20 20 22 23 23 23 23 23 22 25 24 24 24 24 25 28 27 27 26 25 26 25 27 28 28
18 19 22 22 19 18 16 12 13 15 16 16 15 15 15 14 12 14 15 17 15 14 15 17 18 19 19 20 22 23 23 23 24 24 24 25 25 26 27 26 26 27 28 28 27 27 26 26 26 26 26 26 27 28
20 19 18 21 21 18 16 15 16 16 14 14 12 14 13 12 11 14 16 16 16 16 17 18 21 23 23 24 24 24 27 27 26 24 25 26 28 28 26 26 27 26 26 28 27 27 27 27 27 26 26 25 25 27
23 21 19 19 19 19 19 16 15 15 17 15 13 12 12 14 15 14 17 19 20 21 20 21 22 23 25 26 26 28 28 28 27 25 23 22 22 24 22 22 25 27 27 26 27 27 26 24 24 25 24 24 25 26
21 21 20 19 19 18 19 21 19 17 17 17 18 18 18 17 17 15 15 17 18 19 21 22 23 23 24 24 25 26 22 22 23 24 23 21 21 18 17 18 19 20 22 25 25 24 23 21 21 21 20 21 21 21
18 21 20 19 19 18 19 16 14 15 15 17 17 17 18 18 14 13 13 12 13 13 13 12 13 16 16 16 17 19 20 17 17 17 17 16 16 15 14 14 13 15 17 20 21 20 17 16 14 14 15 18 16 15
18 20 19 17 15 14 13 17 16 16 16 16 17 16 16 17 13 10 13 12 10 10 10 11 11 12 15 16 17 17 17 17 16 16 16 15 14 12 10 9 9 11 14 16 15 14 12 11 10 9 9 8 8 7
13 11 12 16 17 15 12 9 10 11 10 9 8 12 12 12 7 9 13 13 12 10 9 10 13 14 16 15 15 15 15 14 14 12 12 12 9 7 5 5 5 7 9 10 9 9 8 7 6 5 5 4 3 3

GFSWCAN_sfc_30mbdewp_009.txt.gz
Dewpoint
49 49 50 51 51 50 50 51 51 51 51 51 52 52 51 50 50 51 51 50 42 36 40 43 40 36 37 36 32 37 37 37 36 34 33 31 30 29 29 28 25 25 25 25 27 26 23 30 31 30 35 39 37 37
49 50 50 50 50 51 50 51 51 52 52 51 51 52 52 50 50 50 49 49 47 39 40 48 49 45 41 38 37 38 34 36 37 33 32 31 30 29 29 27 30 27 28 27 30 29 30 31 33 38 39 39 39 39
47 48 49 49 50 50 50 50 51 51 52 52 51 52 52 50 50 50 49 48 43 40 40 43 43 45 48 45 42 37 38 38 38 37 34 33 31 31 29 30 31 33 34 34 34 35 34 36 39 41 41 39 39 38
47 46 47 49 49 50 50 50 50 51 51 51 51 52 52 50 49 48 47 45 43 40 37 38 43 42 45 48 46 44 41 41 40 39 36 34 34 35 33 34 34 35 37 35 35 36 36 37 40 41 39 39 37 36
46 46 46 47 48 48 50 50 50 50 51 51 51 51 52 50 49 48 48 49 47 42 38 38 42 43 43 44 47 45 43 43 41 39 38 36 37 37 37 36 35 38 37 35 33 36 38 39 40 41 38 35 33 33
45 46 46 46 47 48 48 50 50 51 50 50 50 50 51 50 50 48 44 47 48 46 41 36 40 40 40 43 44 44 44 44 43 41 39 40 40 37 35 33 37 37 38 38 37 40 39 40 39 36 33 31 27 25
45 45 45 46 46 47 47 48 49 50 50 50 50 50 51 50 50 46 42 43 48 45 40 36 36 37 39 40 40 40 42 42 43 42 40 39 39 39 36 33 36 37 36 38 38 39 36 35 33 31 25 22 23 23
45 45 45 45 45 46 47 47 48 49 49 49 50 50 50 49 48 47 47 48 47 43 41 35 35 36 39 36 37 37 38 40 41 41 38 38 38 38 35 36 33 32 33 37 37 38 36 29 24 24 24 24 23 22
45 44 44 45 45 45 46 47 47 47 48 48 49 49 48 46 45 45 47 47 46 42 38 37 34 31 39 36 35 36 36 36 37 36 36 37 35 34 32 31 34 34 33 34 30 24 24 24 23 24 25 25 24 21
45 44 43 45 44 45 46 46 47 47 47 48 46 43 39 41 46 47 44 43 42 39 38 36 37 36 38 34 35 36 34 33 30 33 33 32 33 29 29 32 34 33 32 29 24 23 23 23 24 25 26 27 27 25
45 44 43 44 44 45 46 46 47 46 45 42 38 37 42 46 41 39 35 36 35 33 35 35 35 35 38 35 35 34 32 31 26 27 29 28 27 27 27 26 27 26 26 25 24 24 24 24 25 26 27 28 28 27
45 43 43 45 44 44 46 46 46 44 43 43 42 43 42 39 35 32 32 31 32 31 33 33 34 36 35 38 34 31 30 28 23 28 27 24 26 28 28 27 27 25 22 19 21 22 23 24 25 26 26 26 26 26
45 43 43 44 44 43 45 45 44 44 43 41 38 35 35 33 30 29 27 28 29 31 32 33 32 34 34 35 31 29 26 24 26 24 22 23 23 21 21 24 24 23 21 21 23 24 25 25 25 25 25 26 26 26
44 43 43 43 43 44 44 44 41 38 36 32 33 30 29 27 29 28 26 27 29 33 33 33 30 30 29 29 27 24 23 23 21 19 18 22 19 19 23 25 21 18 20 22 23 25 25 25 25 25 25 25 25 26
44 43 44 41 42 40 40 38 37 37 31 25 26 26 27 27 30 31 32 33 33 34 33 30 29 29 26 24 23 22 21 19 19 17 19 20 22 23 24 23 20 20 22 23 25 25 25 25 25 25 26 27 27 26
44 43 41 40 40 40 38 36 35 30 28 27 24 23 27 27 28 31 32 32 34 33 31 29 25 25 24 22 20 18 17 13 15 19 20 21 23 24 24 23 22 23 24 24 25 25 26 25 25 27 27 26 26 26
43 40 42 40 38 36 35 33 32 28 22 22 23 26 25 24 26 29 31 33 35 32 27 22 21 21 19 19 19 18 15 15 17 17 19 22 23 22 22 22 22 23 24 25 25 26 26 26 26 26 26 27 27 27
40 42 41 38 35 35 33 29 26 24 22 23 22 25 28 27 26 27 29 32 32 27 24 21 19 16 14 13 13 16 19 20 19 18 19 22 23 23 23 23 23 24 25 26 26 26 26 26 27 27 28 27 27 27
42 41 39 37 33 30 29 29 26 21 19 23 24 25 26 27 28 27 28 29 31 28 23 22 20 18 15 16 15 16 17 18 16 18 21 22 23 23 22 23 24 25 26 26 26 27 27 26 26 27 28 28 27 28
40 38 36 34 31 27 26 26 25 22 18 23 24 25 24 25 26 27 28 30 31 30 27 25 23 21 18 17 18 17 18 18 18 20 21 22 22 22 22 24 25 26 26 26 26 26 26 26 26 26 27 28 29 28
37 37 35 32 28 26 25 24 23 23 24 23 23 23 23 25 25 25 26 29 28 27 25 25 25 25 23 22 22 22 22 23 22 22 21 21 23 23 23 25 26 26 25 25 25 26 25 26 27 27 27 29 30 29
36 37 33 28 24 24 23 24 22 22 21 20 21 20 20 21 22 23 26 25 23 24 25 23 23 23 23 23 22 24 23 23 24 24 24 24 23 23 23 24 24 24 24 24 26 26 26 26 28 27 28 29 31 29
34 32 27 22 20 20 23 23 21 21 16 19 19 18 17 18 18 23 21 22 23 24 25 24 23 23 23 23 24 24 24 24 24 24 24 24 25 25 25 25 24 24 23 25 26 25 26 27 26 26 28 31 30 30
30 28 25 21 18 20 22 21 22 21 20 19 16 14 15 16 19 19 18 19 21 23 23 23 23 22 22 23 22 20 21 24 23 23 23 23 23 22 24 24 24 23 24 26 25 25 26 28 27 28 27 25 25 27
22 23 19 19 20 18 17 18 18 18 16 16 17 16 16 15 17 17 16 17 17 17 15 14 15 19 18 16 17 18 21 22 21 20 21 22 23 22 23 23 22 24 25 24 25 24 25 28 28 27 24 24 25 26
17 20 17 17 18 16 15 15 15 16 15 15 16 13 11 15 15 12 13 14 13 13 11 11 14 14 16 19 18 19 19 22 23 22 23 24 23 23 24 23 23 25 25 25 26 26 26 25 26 25 25 26 26 25
16 18 21 21 18 15 14 12 12 14 15 14 15 15 15 14 12 13 15 16 15 15 15 16 16 16 17 19 21 22 22 23 23 24 24 24 25 25 25 26 26 27 28 28 27 26 25 25 25 26 25 24 24 24
18 20 16 19 19 16 16 14 15 15 15 14 12 14 13 12 10 13 16 20 20 21 21 21 21 22 22 23 24 24 25 25 27 26 25 25 25 24 24 24 25 26 26 27 27 27 26 26 24 23 23 24 23 24
22 19 19 19 17 17 18 16 15 16 16 14 13 12 12 14 15 15 16 16 17 20 20 20 21 21 22 23 26 25 24 25 25 24 25 24 23 22 19 19 20 21 23 24 26 27 25 24 22 21 22 21 21 20
20 19 19 17 18 17 17 18 18 16 16 16 16 17 18 14 12 12 11 11 11 11 12 13 15 16 15 15 16 17 18 18 17 19 20 20 17 15 15 15 16 16 17 19 21 22 21 17 15 14 14 16 14 13
17 20 19 18 19 18 17 13 12 13 15 16 15 17 17 12 11 11 11 10 8 9 9 8 9 11 12 12 13 14 15 15 16 15 15 14 13 13 12 11 11 11 13 16 19 18 15 12 10 10 9 9 8 7
17 19 19 18 16 12 11 16 14 14 13 13 13 11 13 13 8 8 10 9 7 6 7 8 8 9 13 16 15 14 13 12 11 12 12 11 11 10 8 7 6 7 10 11 11 10 8 7 6 6 5 5 4 4
13 13 12 13 16 16 11 7 7 9 8 8 9 11 8 7 4 6 7 9 9 7 6 7 9 14 12 11 10 10 10 10 9 8 7 7 5 4 3 3 3 5 6 7 6 5 5 4 3 2 1 1 0 -0

GFSWCAN_sfc_30mbdewp_015.txt.gz
Dewpoint
49 51 51 51 50 50 50 50 50 51 51 52 52 52 50 49 50 52 52 53 49 44 42 42 41 40 40 37 41 41 40 42 42 37 38 37 36 32 30 26 30 29 32 30 31 28 25 31 30 33 34 38 38 40
49 49 50 51 50 50 50 50 50 50 51 51 51 52 51 49 49 51 47 50 51 45 46 50 48 48 46 43 39 43 38 41 40 40 41 40 34 37 36 28 27 26 29 29 30 28 28 32 33 37 38 39 40 39
47 48 49 50 50 50 50 50 50 51 51 51 51 51 51 49 49 51 50 51 48 51 46 45 44 48 48 48 47 41 44 40 42 44 43 40 34 38 32 33 30 30 29 32 32 30 30 32 36 40 41 41 40 39
46 47 47 48 49 50 50 50 50 51 51 52 51 51 51 49 49 51 49 50 48 46 40 45 45 46 47 49 48 47 44 46 45 44 41 37 35 38 38 33 31 33 32 33 34 33 32 35 39 39 40 40 39 34
45 45 46 46 47 48 49 50 50 50 51 51 51 51 51 49 51 52 52 51 51 47 42 45 45 44 45 46 47 46 45 44 45 41 38 38 42 40 40 40 35 33 32 33 34 35 38 39 41 40 39 39 31 29
45 45 45 46 46 47 48 49 50 50 50 50 50 51 52 50 50 50 46 51 51 51 46 40 45 43 44 45 47 46 45 45 45 44 41 42 40 39 37 36 34 33 34 34 36 40 40 41 40 39 33 30 27 25
44 44 45 45 45 46 47 48 49 50 50 50 51 51 51 50 53 47 44 49 49 51 45 40 43 42 42 44 44 45 46 46 45 44 44 42 40 40 39 34 32 34 36 36 39 40 38 39 36 32 28 27 25 21
44 43 43 45 45 45 46 47 47 48 49 50 50 50 50 49 49 49 51 49 50 48 48 40 39 41 42 42 41 41 42 44 43 42 42 41 40 41 36 37 37 36 35 37 38 40 40 37 30 27 24 19 15 14
44 44 43 44 44 45 45 46 47 47 49 50 49 49 49 50 48 49 47 50 50 48 42 39 36 34 41 39 40 40 41 37 41 38 39 40 37 34 36 36 36 36 37 36 34 31 29 25 22 16 14 14 16 16
43 43 43 44 44 45 45 46 46 47 48 48 48 46 42 44 48 48 48 46 45 44 44 38 41 37 39 37 36 37 38 36 33 36 37 33 33 37 34 35 35 35 35 32 30 26 21 16 14 15 17 18 18 19
43 44 43 44 44 46 46 46 47 47 47 44 39 38 42 46 43 41 39 40 39 36 38 40 41 37 40 36 35 37 35 35 31 33 34 32 30 34 34 35 34 32 30 24 19 16 15 16 17 18 20 21 23 24
43 43 43 44 44 46 46 45 45 44 43 43 42 42 41 38 35 36 34 33 33 34 34 34 35 38 37 40 35 33 32 32 29 32 30 27 29 32 33 30 28 23 18 16 15 16 17 18 21 23 24 23 24 28
42 43 43 43 43 45 45 44 45 45 45 40 35 34 33 31 30 30 27 29 30 32 33 34 32 34 35 36 33 32 30 30 31 27 25 27 29 29 29 27 24 20 20 19 15 16 19 22 24 27 27 29 30 29
41 43 43 43 43 45 45 44 42 42 40 34 32 29 30 29 30 31 32 32 34 35 35 34 32 32 33 32 32 30 30 29 26 23 25 28 29 28 27 25 22 20 22 18 19 21 24 29 29 30 30 30 30 29
38 43 43 42 44 43 43 42 40 38 36 33 33 28 29 30 32 32 33 34 35 36 36 34 34 35 31 29 31 28 25 24 24 24 28 27 27 25 24 25 22 25 26 24 22 23 28 29 30 30 31 32 32 32
41 43 42 42 42 42 41 41 40 37 34 31 31 29 31 31 30 32 32 32 35 35 36 35 31 30 29 30 26 26 26 22 25 29 29 24 23 24 24 25 24 22 21 21 21 23 27 29 30 30 31 31 31 31
42 40 42 42 40 37 39 39 37 30 31 30 29 33 32 33 32 32 34 34 36 34 31 32 28 28 28 26 25 25 25 27 28 30 25 23 23 23 21 21 25 26 25 24 24 25 27 29 31 31 30 28 28 29
37 42 42 39 40 39 38 35 32 30 28 28 30 31 31 32 32 32 34 35 34 33 30 29 26 25 24 23 23 28 27 27 27 24 21 21 22 23 24 24 23 22 22 23 27 29 29 31 30 28 25 25 27 27
39 41 41 39 39 37 34 34 31 26 28 28 29 30 30 31 31 31 33 33 33 31 30 28 27 23 23 23 26 30 30 28 24 22 22 24 25 25 25 24 24 24 24 24 25 26 25 25 27 27 28 28 27 28
41 41 37 34 35 34 31 30 30 25 26 27 29 29 29 29 30 30 31 33 32 32 30 28 26 26 26 25 24 26 24 25 24 24 24 22 20 22 24 24 24 24 24 24 25 26 27 28 28 27 28 28 29 29
36 38 37 36 32 30 28 28 27 27 26 26 28 28 27 28 29 28 28 32 31 30 25 25 29 31 29 28 27 26 26 26 22 21 22 22 22 23 23 23 25 25 26 26 31 30 30 31 30 30 33 33 32 31
35 37 33 35 32 29 27 28 27 27 26 27 27 26 26 26 26 26 28 27 26 26 25 26 25 26 26 27 26 26 25 25 25 25 25 25 24 25 24 24 25 28 29 32 31 33 34 33 32 34 33 32 32 31
35 34 31 31 28 28 26 28 26 24 24 25 25 25 24 25 25 24 24 23 24 25 25 24 24 26 26 24 24 24 24 24 23 21 23 25 25 26 28 29 30 32 32 31 30 31 32 33 33 32 32 31 31 30
34 30 28 26 26 23 27 25 24 23 23 22 21 21 21 23 23 22 21 22 22 23 24 24 24 21 21 24 20 17 18 20 23 24 27 26 25 24 24 25 27 31 31 31 32 32 32 32 31 31 30 30 29 27
28 24 26 22 24 22 21 22 22 21 20 21 21 20 22 22 21 19 20 19 27 29 29 26 22 20 19 20 20 21 22 25 24 24 25 26 27 29 30 28 27 29 31 33 30 30 31 31 30 29 27 27 26 26
20 23 22 22 22 20 20 19 19 20 20 20 21 21 23 21 19 16 15 26 28 27 28 28 27 24 22 22 23 23 25 27 27 26 26 27 29 29 29 28 27 28 31 32 31 29 29 29 28 27 26 27 28 26
19 21 22 22 21 21 21 21 21 20 19 18 20 20 20 16 14 16 23 23 24 24 24 25 25 24 23 23 24 24 24 25 26 26 27 28 28 29 29 28 28 29 30 30 30 29 28 27 26 27 26 26 27 27
23 22 19 23 22 22 20 20 20 18 20 19 21 19 17 15 17 22 20 19 20 21 22 22 21 20 20 20 20 21 21 21 20 22 22 24 28 26 25 26 27 26 27 28 28 27 27 27 26 25 25 25 24 25
24 24 22 19 22 22 22 20 20 20 20 21 21 19 21 20 18 18 17 18 19 19 18 17 17 18 18 18 18 21 18 17 15 13 14 15 17 18 19 20 20 22 22 23 25 26 25 23 22 22 21 21 22 20
23 25 23 21 19 19 25 25 27 29 24 25 26 22 19 17 15 15 15 15 15 15 15 15 15 15 14 14 14 16 18 15 14 12 11 11 13 16 16 16 16 17 18 20 20 22 25 23 21 20 18 17 16 16
24 23 22 22 22 26 26 26 26 26 26 26 28 25 21 14 13 12 12 13 13 13 12 12 12 13 12 12 11 11 11 12 12 12 11 11 12 13 13 12 14 15 16 17 18 19 17 18 18 16 14 13 11 11
23 21 21 20 21 25 25 24 25 24 24 24 23 21 18 16 12 10 10 11 11 10 9 10 9 10 12 13 13 13 13 12 11 11 10 9 9 9 9 10 11 12 13 14 16 16 15 15 13 12 12 9 8 7
20 20 20 20 20 20 22 20 17 16 18 17 17 16 14 14 9 9 10 10 9 8 8 9 10 10 12 12 12 11 11 10 11 10 10 7 7 7 6 8 7 7 9 11 12 12 11 10 9 8 6 5 4 2

GFSWCAN_sfc_30mbdewp_018.txt.gz
Dewpoint
51 51 51 50 50 49 50 50 51 51 52 52 51 51 49 49 49 53 53 53 53 47 44 44 42 40 39 39 43 41 40 41 44 37 37 38 36 34 31 28 32 29 31 30 31 28 25 31 30 30 35 39 40 40
50 51 50 50 50 49 49 50 50 50 51 51 51 51 50 49 48 51 48 51 53 49 48 50 49 48 46 45 41 43 38 42 44 41 41 42 34 38 36 29 25 26 33 33 32 31 33 32 33 38 39 40 40 38
48 49 50 50 50 50 49 49 50 50 51 51 51 51 51 49 49 51 50 52 49 52 46 46 45 48 48 48 49 44 46 40 40 46 44 40 33 40 29 34 29 27 27 31 32 32 30 33 36 41 40 39 39 39
46 47 48 49 50 50 50 50 50 51 51 52 51 51 51 49 51 52 50 52 50 49 41 46 46 46 47 49 48 48 46 48 47 47 41 38 32 39 39 35 34 33 31 30 32 32 33 35 39 40 39 40 39 38
46 46 46 47 48 49 50 50 50 50 51 52 51 50 51 50 50 53 52 52 51 50 41 47 45 45 46 47 46 46 47 46 47 42 38 36 43 39 43 41 39 35 31 33 34 36 37 39 41 41 41 40 38 29
45 45 45 46 46 47 49 49 50 50 50 50 50 51 51 51 50 53 47 52 51 52 46 40 46 44 44 45 46 46 45 45 44 45 42 43 40 40 38 36 35 31 31 33 35 40 41 41 40 40 39 35 28 26
44 44 45 45 45 46 47 48 49 50 49 49 49 50 51 51 53 48 45 49 49 53 44 40 44 43 43 45 46 45 47 47 46 44 43 43 42 40 39 35 34 32 32 36 39 40 38 39 36 33 30 27 25 20
44 43 44 44 44 45 45 46 47 48 49 49 50 50 50 49 48 49 51 50 51 49 49 40 40 41 42 44 43 43 44 44 44 42 43 41 41 41 37 37 35 34 35 37 38 39 40 40 39 30 26 20 15 16
43 43 44 44 44 45 45 45 46 48 48 49 50 50 51 51 49 50 48 50 52 49 44 39 36 34 42 40 41 41 42 37 42 40 39 40 38 35 37 36 36 36 36 37 38 35 37 32 25 19 16 17 17 17
44 43 44 44 45 45 46 46 46 47 48 48 49 46 43 45 48 48 48 47 46 48 45 38 41 38 39 38 37 37 38 37 33 36 39 35 35 38 35 37 37 37 37 36 32 29 24 20 17 17 18 19 20 20
43 43 43 44 45 45 46 46 47 47 47 44 40 39 42 45 45 43 41 41 40 38 40 41 41 38 41 35 35 39 35 35 31 33 35 33 32 34 37 35 36 36 34 32 30 25 18 17 17 19 21 25 25 25
43 43 43 44 44 44 45 46 45 45 43 43 42 42 41 38 36 37 36 35 35 35 36 35 38 40 40 42 37 35 34 34 29 35 32 29 30 33 35 35 34 32 24 19 17 17 18 18 21 24 26 26 26 28
43 43 43 43 44 45 44 44 44 43 44 39 36 35 34 32 30 29 28 30 31 33 34 35 33 35 36 37 34 33 30 29 35 30 27 28 32 33 33 31 27 22 20 20 16 17 20 22 25 26 27 28 29 30
42 43 43 44 44 45 43 41 41 41 39 34 32 29 30 29 30 30 30 31 33 35 34 34 32 33 33 32 32 29 31 32 27 25 26 31 29 29 29 29 24 23 17 18 21 22 23 25 28 30 30 30 31 30
39 43 43 44 42 43 42 40 40 39 38 33 33 28 29 31 31 32 32 33 34 36 35 33 33 34 31 30 31 29 27 26 28 28 31 31 31 30 27 26 25 25 26 25 24 23 25 27 28 29 31 31 32 32
41 42 42 43 42 42 41 41 40 39 35 34 33 30 31 31 31 32 32 32 35 35 36 35 31 30 29 30 28 28 27 25 30 33 30 27 27 27 27 26 26 25 24 24 24 24 24 26 28 29 31 32 31 31
40 41 42 40 38 38 39 39 38 32 32 32 30 34 33 33 32 32 34 34 37 34 31 32 28 26 30 28 27 30 28 31 31 31 28 27 26 26 24 23 24 25 26 26 26 26 26 28 30 30 30 31 31 32
37 42 42 41 41 40 38 37 35 33 29 30 30 31 32 33 33 33 35 36 35 33 32 30 29 27 26 25 26 30 29 30 29 27 26 24 24 24 26 27 26 26 26 26 26 27 28 29 29 30 31 31 29 28
40 41 42 40 39 38 35 35 33 29 29 30 31 31 32 31 33 33 33 34 33 32 31 30 28 27 26 26 29 33 33 30 27 25 24 24 25 26 26 27 27 26 27 26 27 27 28 28 28 29 30 29 29 30
39 40 40 39 38 35 32 32 32 27 28 28 30 29 30 30 30 31 33 34 32 32 30 28 28 29 29 27 26 29 27 30 25 26 26 26 25 25 26 26 27 27 27 27 27 28 28 29 29 29 29 29 30 32
38 38 37 38 34 32 30 28 28 28 27 28 28 29 27 28 28 28 30 32 31 30 26 27 29 32 31 30 29 29 28 27 26 26 25 24 25 27 27 27 27 28 28 29 30 30 32 31 30 32 33 34 32 31
36 37 34 35 33 30 29 30 28 28 28 27 27 27 26 25 25 27 29 27 25 26 26 27 27 26 28 29 28 28 28 26 27 27 25 26 26 26 27 28 27 28 30 30 29 30 32 32 34 34 34 33 32 32
35 34 32 31 29 29 27 30 26 25 24 24 25 24 23 24 25 26 24 24 25 26 26 25 26 28 28 27 25 25 25 25 24 24 26 27 28 29 29 29 29 29 29 30 31 31 31 34 34 33 32 32 31 31
34 31 29 28 29 24 28 25 24 24 24 23 22 22 22 23 24 23 21 23 23 24 24 24 24 23 25 24 21 22 25 25 25 25 27 27 27 27 27 28 28 29 29 29 32 33 33 31 31 31 31 30 30 29
28 25 27 23 27 24 22 22 22 22 21 22 21 21 23 24 22 20 20 24 29 28 29 31 27 21 20 23 25 26 29 29 28 28 28 28 29 30 29 30 30 30 31 30 30 32 32 31 31 31 30 29 27 27
23 25 25 24 24 23 22 20 21 21 21 21 21 23 24 22 19 17 19 28 26 25 25 26 26 25 25 25 24 25 24 25 24 22 22 24 24 24 24 25 25 26 28 29 29 29 29 29 29 29 28 27 28 27
21 21 23 23 23 23 23 23 22 22 20 19 21 20 20 17 15 22 23 23 24 23 23 24 23 22 21 21 21 21 22 23 21 20 20 22 26 23 22 20 19 21 25 26 26 27 26 27 27 27 27 27 27 27
23 23 20 24 23 23 21 20 20 20 20 20 22 19 17 16 20 22 20 20 20 21 22 22 21 19 20 19 20 21 19 18 18 17 18 24 23 20 18 19 19 19 20 21 22 23 25 25 24 24 24 24 24 24
23 24 22 21 23 23 22 21 21 19 21 22 21 19 23 20 20 20 19 19 20 19 18 17 18 19 19 18 20 21 17 15 13 11 10 12 12 13 15 16 16 16 17 17 18 20 22 24 23 22 22 23 22 22
23 26 22 22 20 21 26 29 28 28 27 29 28 22 19 16 16 17 17 16 16 16 17 17 17 15 15 14 14 14 19 15 13 11 8 8 10 12 13 13 12 13 15 15 16 17 20 20 21 23 20 19 16 17
23 24 23 22 22 27 27 27 27 27 27 27 28 26 19 14 14 14 14 17 16 14 13 12 13 15 12 12 12 10 10 12 14 13 11 11 11 11 10 10 10 12 12 12 13 15 16 16 18 18 15 13 12 11
23 21 21 19 23 26 26 24 24 24 25 22 23 21 20 18 14 12 12 14 13 11 11 10 10 10 11 13 14 14 14 13 13 13 11 11 9 9 9 8 9 10 8 8 11 14 14 13 14 11 11 9 8 6
21 20 20 19 19 19 22 21 16 16 18 17 20 18 16 15 11 12 13 13 11 10 10 9 10 11 14 13 9 14 9 8 9 12 11 11 9 7 7 7 8 7 5 5 8 12 10 9 8 7 6 4 2 1

GFSWCAN_sfc_30mbdewp_021.txt.gz
Dewpoint
50 50 50 49 49 49 50 50 51 51 51 51 51 50 49 48 49 54 50 54 52 45 45 49 48 43 42 43 39 42 39 40 41 33 29 33 33 31 30 32 29 23 26 28 30 27 21 32 31 28 31 40 40 39
50 50 50 49 49 49 50 50 50 51 51 51 51 51 49 49 50 52 48 53 55 50 49 50 48 49 49 49 44 42 34 43 43 38 39 40 33 37 33 26 33 26 28 28 29 26 30 33 32 38 39 40 39 38
50 50 49 49 49 49 50 50 50 51 51 51 51 51 50 49 50 52 52 53 54 49 47 47 46 48 48 49 50 41 45 44 45 47 41 38 28 37 29 32 30 30 34 32 33 34 33 37 41 41 40 39 39 39
48 49 49 49 49 49 49 49 50 51 51 51 51 51 51 50 50 53 52 53 51 47 40 46 46 47 47 49 48 49 47 49 48 43 39 38 29 39 34 29 31 31 34 31 32 33 34 40 41 40 40 40 39 39
46 46 48 50 50 50 49 49 50 51 51 51 50 50 51 50 50 54 53 53 52 48 38 45 46 45 46 47 47 48 48 47 45 40 37 33 37 39 40 39 37 37 32 31 30 36 36 40 40 41 40 39 38 36
45 46 46 47 48 49 50 50 49 50 50 49 49 50 51 51 52 54 50 53 50 54 42 34 46 44 44 46 47 46 46 46 46 40 38 42 44 37 37 35 37 37 36 35 36 42 41 41 41 41 40 38 33 26
45 45 45 45 46 47 48 49 49 49 49 49 49 50 51 50 50 48 45 48 49 52 40 39 42 43 42 45 45 47 47 46 46 44 43 42 42 41 38 34 36 36 34 40 41 40 39 39 38 39 35 28 26 19
44 44 44 45 45 45 45 47 48 49 49 48 49 50 50 49 49 50 50 49 51 49 45 38 38 39 43 43 41 43 42 43 44 42 42 40 40 39 36 38 38 37 37 39 40 39 39 39 38 30 26 18 18 18
44 44 44 45 45 45 45 45 47 48 49 49 50 51 51 50 48 50 48 50 52 48 41 39 33 30 42 40 40 40 42 38 42 40 39 40 37 35 37 38 37 36 37 37 38 39 39 38 37 20 19 19 19 19
43 44 44 45 45 45 45 46 46 48 48 50 49 47 44 45 46 49 48 46 44 47 42 39 40 37 39 38 37 37 37 36 33 34 39 36 34 38 38 37 37 38 38 38 35 36 33 19 19 19 21 22 23 23
43 44 44 45 44 45 46 47 47 47 47 45 41 40 42 45 45 43 41 39 39 37 41 40 39 37 40 34 35 37 34 35 30 32 33 31 31 33 36 37 37 37 36 32 25 23 20 19 20 21 25 25 24 25
43 43 44 44 44 44 45 45 45 44 43 43 42 43 41 38 37 38 37 37 37 35 36 37 38 39 40 41 35 35 33 33 28 36 33 28 31 36 36 34 32 22 21 20 20 20 20 23 25 24 25 25 26 27
43 43 44 44 43 42 43 43 43 43 42 39 37 35 36 32 31 31 29 30 31 33 34 35 35 36 37 37 34 34 31 30 35 30 28 29 33 35 35 26 21 20 19 19 20 22 23 23 24 23 23 25 27 28
43 43 43 44 44 42 41 40 41 42 39 35 33 30 31 29 30 29 30 31 33 34 34 34 32 34 33 34 32 30 31 31 28 26 25 33 33 32 30 24 20 17 15 14 16 21 22 23 23 26 28 28 28 28
42 43 43 42 43 42 41 40 40 40 38 33 34 28 29 30 31 31 32 32 33 35 34 33 32 33 31 30 31 29 26 25 28 27 30 34 32 28 26 24 20 20 22 23 24 23 22 24 26 27 28 29 30 30
40 42 42 42 42 41 41 40 39 39 35 33 31 29 31 31 31 32 32 31 34 33 34 34 31 30 28 29 28 27 27 25 29 32 31 28 27 27 26 26 26 25 23 23 24 24 25 25 25 26 28 30 30 30
40 41 41 38 39 39 40 38 36 32 32 31 29 34 33 31 30 31 34 33 37 34 30 32 28 26 30 27 26 30 27 30 31 29 27 26 26 26 24 22 23 25 26 26 27 26 26 27 27 28 27 28 29 30
40 42 40 39 42 40 38 38 34 32 29 30 31 31 31 32 32 32 34 35 35 33 33 29 30 28 26 24 27 31 30 28 28 26 26 26 26 26 27 26 27 27 26 25 25 25 26 26 27 27 29 30 30 30
40 42 42 41 40 37 33 33 34 28 29 30 30 30 30 30 32 33 33 32 31 33 31 30 27 27 27 27 29 31 31 29 26 24 25 24 24 24 25 27 26 25 26 26 27 27 27 28 28 28 28 28 28 29
39 39 40 40 38 35 31 31 33 29 27 30 29 29 29 28 30 31 33 33 32 32 29 27 28 30 28 28 28 29 31 29 26 25 26 27 27 26 26 27 26 27 28 27 27 28 28 29 29 29 29 30 31 30
38 38 38 38 36 33 30 29 29 28 28 28 29 28 26 28 27 27 28 31 30 29 27 29 30 32 30 29 28 28 28 28 27 26 26 24 26 25 24 25 26 27 27 27 28 28 28 28 29 30 32 32 33 32
36 37 35 36 32 31 29 30 30 29 28 26 27 28 25 24 24 26 28 26 25 27 28 27 28 29 30 30 30 30 28 26 26 26 26 26 26 27 27 28 28 27 27 27 28 28 28 29 31 32 31 31 32 32
36 35 32 32 29 29 26 30 26 26 23 24 26 24 23 23 24 26 23 24 25 28 27 28 28 27 27 26 24 26 27 26 27 28 28 27 27 28 28 29 29 28 28 29 29 30 30 32 32 30 30 29 30 30
35 31 29 28 29 25 29 25 25 24 24 23 21 20 23 22 24 23 22 24 29 30 29 30 29 25 26 26 28 27 27 27 26 26 27 27 27 26 26 25 26 26 27 28 28 28 29 29 29 30 29 28 29 28
28 26 27 24 28 25 23 22 22 23 21 23 21 22 22 23 21 21 20 26 25 26 27 26 27 26 25 25 26 25 24 23 22 21 23 22 21 21 21 23 24 24 22 22 22 23 24 25 27 28 28 28 28 26
23 26 24 25 24 25 23 21 23 22 21 20 22 24 23 22 20 18 23 24 24 24 24 24 23 23 22 23 22 21 22 22 19 18 19 20 22 19 17 16 16 16 18 20 19 18 19 21 22 25 26 27 27 26
21 22 24 24 27 27 25 27 26 23 21 20 22 21 20 17 17 22 23 23 23 24 26 24 21 21 21 20 21 22 20 17 17 16 18 22 19 17 16 14 13 15 16 17 16 16 17 18 20 21 21 23 25 24
23 25 21 25 26 25 22 21 21 20 20 22 21 19 18 17 19 21 21 22 22 25 25 21 20 21 21 22 22 18 15 13 12 10 12 17 15 13 12 13 14 12 12 14 14 15 16 16 18 20 21 20 22 20
24 25 22 21 23 23 22 21 21 23 26 22 20 20 21 18 18 20 20 21 21 20 17 18 16 17 16 16 18 18 13 10 7 6 5 5 6 7 10 11 10 9 9 11 11 12 14 15 18 18 19 19 18 14
23 26 22 21 20 23 25 27 28 27 28 28 24 20 17 16 17 19 18 17 16 16 18 18 17 13 12 12 11 10 15 13 12 10 6 5 7 10 9 8 8 7 8 9 7 8 10 14 16 18 16 14 14 10
24 23 21 21 22 26 26 26 26 26 26 25 26 21 14 12 14 13 13 16 15 11 12 11 12 11 9 10 11 10 9 11 12 13 10 10 11 8 8 7 5 6 8 6 4 5 7 12 13 12 10 9 8 6
22 22 19 19 24 25 24 22 22 21 23 20 21 19 17 16 10 12 12 14 12 11 10 10 9 10 11 13 9 10 11 8 7 7 11 11 9 8 5 4 5 6 6 5 3 4 6 9 8 7 6 4 3 2
20 20 19 19 19 20 22 21 19 17 19 18 19 18 14 12 8 11 14 13 10 9 9 8 8 9 12 5 7 6 4 5 6 9 7 10 6 5 5 6 7 7 4 2 3 6 6 6 3 2 1 -1 -2 -3

GFSWCAN_sfc_30mbdewp_024.txt.gz
Dewpoint
50 49 49 48 49 49 50 51 51 51 51 51 50 49 49 50 51 50 51 53 47 43 47 48 47 42 43 40 36 40 36 39 37 29 23 30 30 30 30 31 29 26 25 28 28 24 13 30 32 27 28 39 39 39
49 49 49 48 49 49 50 51 51 51 51 51 51 50 49 50 51 54 47 53 53 46 47 49 48 49 48 46 42 41 31 39 37 33 34 36 31 35 31 24 32 23 23 22 27 22 28 33 32 33 39 39 39 38
49 49 49 48 49 49 50 50 50 50 50 51 50 50 50 50 52 53 51 53 50 45 45 45 45 47 48 49 49 38 44 44 44 41 39 37 26 36 28 30 32 31 33 30 31 30 32 34 40 40 41 39 39 39
49 49 48 48 49 49 49 50 50 51 51 50 49 49 50 50 52 53 50 52 47 44 34 44 47 45 47 48 48 47 47 48 45 41 37 35 27 36 29 27 31 28 34 32 32 34 38 40 40 40 39 39 39 39
48 49 48 48 49 49 49 49 50 51 50 49 49 50 50 50 52 52 51 50 51 40 36 43 45 45 46 47 48 48 47 45 42 39 37 35 34 38 37 37 34 35 29 29 28 32 32 36 40 40 39 38 38 37
46 48 49 49 49 49 49 50 50 49 49 49 49 50 50 50 53 52 44 51 49 50 39 33 44 43 43 46 47 46 47 46 43 39 36 38 43 36 34 35 37 39 39 37 36 40 41 40 41 41 40 39 35 24
45 46 46 48 49 49 49 49 48 48 48 49 50 50 48 49 48 46 41 48 49 48 38 38 39 43 43 45 44 45 46 45 45 42 40 40 41 40 36 34 35 36 37 39 41 40 39 40 39 41 39 33 21 19
45 45 45 45 46 47 48 49 49 48 48 49 50 50 51 49 50 49 48 48 50 45 39 34 36 38 43 41 41 42 41 42 43 42 42 40 39 37 35 37 39 38 37 41 40 39 39 39 39 32 25 20 19 19
45 45 45 45 45 45 46 48 49 49 48 50 50 50 48 47 47 49 48 48 51 44 39 37 30 29 41 39 39 39 39 38 39 39 39 39 36 34 35 37 38 39 38 39 39 39 38 37 25 20 20 20 20 21
44 44 44 44 45 45 45 47 48 49 50 49 48 44 42 44 46 47 45 42 41 44 41 38 38 36 39 37 37 36 36 35 34 35 38 36 35 37 37 38 37 38 38 39 38 38 33 24 22 22 22 22 22 22
44 44 43 45 46 46 46 47 48 48 46 45 43 41 42 44 44 41 38 37 39 37 40 39 38 37 39 35 36 36 34 34 29 29 33 29 30 33 36 37 37 38 34 33 33 27 24 24 23 24 24 24 24 23
44 44 43 43 43 44 45 45 44 43 43 43 42 43 40 38 39 37 36 36 36 35 36 37 37 39 40 39 35 35 33 32 27 34 32 28 30 35 28 23 23 23 22 23 25 26 26 26 24 24 24 24 24 25
44 44 43 42 41 42 43 43 43 43 42 41 38 36 37 33 33 33 31 31 32 33 35 35 36 36 37 37 35 34 31 30 34 31 29 30 35 28 22 20 20 21 22 22 23 25 25 23 22 20 19 23 24 25
43 43 44 44 43 42 41 41 42 42 38 36 34 30 31 29 29 30 30 31 32 33 34 34 32 33 33 34 32 30 31 31 28 26 25 32 36 34 23 20 17 15 15 16 19 21 20 21 22 24 25 26 27 26
42 42 41 42 41 41 41 40 40 40 35 33 31 27 28 29 30 31 32 32 33 35 34 32 32 33 31 30 31 29 26 25 27 25 30 32 32 28 24 21 19 21 23 23 23 22 21 22 23 24 25 27 28 28
40 41 41 41 40 40 40 39 37 36 33 31 30 28 30 29 30 31 32 31 34 33 34 33 31 30 28 29 27 27 26 23 26 31 33 30 28 26 27 26 26 24 22 23 24 24 25 24 24 25 26 28 28 28
41 40 40 39 42 40 39 37 34 32 31 29 30 33 32 31 30 31 32 32 36 34 29 31 27 26 29 27 26 29 26 29 32 31 31 29 28 27 25 24 26 27 27 26 26 26 25 26 26 27 26 26 27 28
40 41 41 41 41 39 36 36 32 30 29 31 30 30 31 32 32 32 33 34 33 32 32 28 30 27 25 24 26 31 32 31 31 30 28 27 27 25 27 25 26 25 24 24 25 26 26 26 26 26 27 28 28 28
41 41 42 40 39 36 32 31 32 27 29 30 30 30 30 30 31 33 33 32 31 32 30 29 26 26 27 27 28 30 30 27 25 25 25 25 26 26 26 27 27 25 25 26 27 27 27 27 28 28 28 28 27 28
38 38 39 40 38 34 28 28 32 27 26 28 29 29 28 27 29 31 33 32 32 31 27 26 27 29 27 27 30 30 31 28 26 25 26 26 27 25 25 25 25 26 27 28 28 27 28 28 29 28 27 28 29 30
37 38 37 38 35 31 29 29 27 27 27 27 29 27 26 27 27 27 27 29 27 27 26 28 29 30 28 28 28 28 28 26 26 24 24 22 25 27 28 28 28 28 27 27 27 27 27 27 28 29 29 30 30 30
36 37 35 36 32 31 27 30 28 28 27 27 28 26 24 23 23 24 27 25 24 26 27 27 28 30 30 29 29 28 27 26 27 27 26 27 26 26 27 27 26 24 25 26 27 27 27 28 28 29 30 30 30 29
36 35 31 31 27 27 26 30 25 24 23 25 27 24 22 23 25 26 22 23 25 29 28 28 27 28 27 28 26 25 26 27 25 24 25 25 25 23 22 22 23 23 21 21 23 22 23 23 24 24 26 28 29 28
35 30 27 27 28 24 29 27 26 26 23 22 23 20 21 21 23 21 21 25 27 27 26 26 27 27 27 25 23 22 22 22 21 21 21 20 19 20 22 22 22 19 18 19 18 17 17 18 19 20 22 23 25 26
27 25 25 24 27 24 22 23 24 23 22 22 20 21 22 22 19 20 20 24 24 24 24 23 24 24 24 23 22 21 21 18 17 17 19 20 19 15 15 15 15 17 14 13 13 13 13 14 15 16 18 21 21 22
22 24 23 22 23 23 22 20 21 22 21 22 21 23 21 20 19 18 21 22 22 23 23 22 21 21 20 20 19 18 16 17 17 16 18 18 15 12 11 10 10 10 12 11 12 10 10 11 12 13 14 16 20 21
21 21 25 26 27 27 24 25 26 24 22 21 21 21 20 17 17 19 21 21 22 24 23 22 21 21 19 20 19 15 12 11 10 10 16 14 12 10 9 8 7 9 10 9 10 9 9 9 10 11 12 15 17 20
23 23 19 24 25 27 23 23 22 21 21 23 21 18 17 15 17 18 20 22 23 21 20 20 19 19 19 18 14 10 8 7 6 8 11 9 8 9 9 8 8 8 7 6 8 8 7 8 9 10 13 14 15 14
24 26 24 22 23 23 22 21 21 24 26 22 18 19 17 15 16 18 18 19 19 18 15 14 14 13 12 13 12 11 8 6 4 3 2 2 2 4 8 6 5 4 4 5 6 6 6 7 9 10 15 12 10 8
22 25 21 19 20 21 24 25 26 26 26 24 20 18 15 14 14 16 15 15 14 13 13 11 9 8 8 9 9 9 10 8 8 6 4 3 6 8 5 3 3 3 4 5 4 3 3 4 5 12 10 9 7 5
24 23 20 20 22 24 25 25 25 25 25 24 21 16 11 11 12 13 13 12 9 9 9 8 8 7 8 8 7 6 6 6 5 6 7 7 7 5 3 3 3 3 4 4 2 1 2 3 6 6 4 3 2 1
21 20 18 19 21 23 22 21 20 19 20 19 19 16 12 10 6 9 12 9 7 7 7 5 5 7 8 7 5 3 3 3 5 6 6 7 4 3 3 3 3 3 3 -0 -2 -0 3 3 2 0 0 -1 -2 -2
18 17 17 17 18 19 19 17 17 17 17 17 15 13 10 8 6 9 12 8 7 6 5 4 5 5 5 3 1 1 2 3 4 5 4 7 5 4 2 2 2 -1 -3 -4 -3 -1 0 -1 -2 -3 -3 -4 -5 -5

GFSWCAN_sfc_30mbdewp_027.txt.gz
Dewpoint
49 48 48 48 47 49 50 50 50 50 50 50 49 50 50 51 51 49 51 53 45 44 47 47 46 42 41 39 34 39 36 37 33 28 22 24 25 29 28 29 30 27 27 27 26 23 15 27 31 27 26 33 38 38
48 48 48 48 49 50 50 51 50 50 50 50 49 50 50 51 53 49 49 54 51 45 46 48 48 49 48 41 41 40 35 37 35 30 29 32 28 33 29 21 32 24 24 21 26 20 26 31 32 33 35 36 39 38
48 48 48 49 49 50 50 50 50 50 50 48 48 49 51 52 52 51 51 52 45 44 45 44 45 47 47 48 47 36 41 41 40 38 37 35 25 34 26 29 30 31 31 26 28 26 29 31 34 39 39 39 39 39
48 48 48 49 49 49 50 50 50 49 48 48 48 50 51 51 51 51 50 51 43 39 36 43 47 45 46 49 49 45 45 45 42 39 35 32 24 33 28 28 32 30 33 30 31 32 36 38 38 39 40 39 39 39
48 48 48 49 49 49 50 50 49 49 48 49 49 50 50 51 51 50 49 49 49 35 36 42 45 45 45 48 48 47 45 43 41 38 37 35 32 35 35 35 32 34 29 28 24 30 32 32 39 40 39 38 38 37
48 48 48 48 49 49 50 49 48 48 49 49 49 48 48 52 53 44 39 48 50 46 38 36 43 43 44 47 47 47 46 44 41 39 37 36 39 35 33 34 35 37 37 33 31 34 36 39 40 40 39 39 36 24
48 48 48 48 48 49 49 48 48 48 49 49 49 48 48 47 47 42 36 47 49 45 35 38 39 41 43 44 43 44 44 44 43 40 38 37 40 39 35 32 32 35 36 37 39 40 39 40 39 41 40 32 23 20
45 46 47 48 49 48 48 48 48 48 49 50 50 50 49 49 49 45 48 48 47 41 37 31 34 38 42 41 42 41 41 42 41 40 40 40 38 36 35 36 38 39 39 39 40 40 39 40 41 36 24 20 20 20
44 45 45 46 48 48 48 47 48 48 49 50 49 47 46 46 46 47 47 47 46 41 35 34 28 29 40 39 38 39 38 39 39 39 39 38 36 35 37 37 37 38 39 39 40 39 39 37 28 22 22 23 22 21
45 45 45 45 45 47 48 48 49 49 49 47 46 41 40 44 45 45 43 40 39 42 40 36 36 35 39 37 37 36 35 36 33 35 39 36 35 37 35 36 37 38 38 40 38 37 26 24 26 28 28 25 23 23
44 45 45 45 46 46 47 48 49 48 47 44 42 41 43 43 42 40 37 36 38 37 39 37 36 36 38 36 36 34 33 33 29 29 33 29 29 32 29 27 31 32 35 32 32 30 31 33 33 31 25 25 24 23
43 43 43 43 44 45 46 46 45 44 43 43 42 42 39 37 37 35 34 36 35 34 36 37 37 39 38 37 35 35 31 32 27 33 31 26 31 25 23 25 28 31 33 33 34 34 34 32 29 27 26 25 24 24
44 44 43 42 42 43 44 45 44 43 43 40 38 36 36 34 34 33 31 32 32 33 34 35 35 35 37 37 34 34 31 29 34 31 29 30 27 29 30 31 33 34 35 35 35 33 31 27 25 22 20 22 24 24
42 42 41 41 41 41 41 43 43 42 40 36 35 32 32 29 29 30 31 31 32 33 33 34 33 34 33 34 32 30 31 31 28 26 25 31 33 34 26 22 18 20 22 22 21 21 21 22 22 24 24 26 26 26
42 41 40 41 41 41 40 39 40 38 35 32 31 27 27 29 30 31 32 32 32 34 34 33 33 33 31 30 30 29 27 25 26 24 28 30 31 29 22 25 26 24 23 22 22 21 22 23 23 24 25 26 27 26
41 40 39 41 42 40 40 38 36 35 32 30 30 28 30 30 30 31 32 31 34 33 34 33 31 29 28 29 27 26 25 21 25 30 32 31 30 31 32 33 26 26 26 26 26 25 25 25 24 25 26 26 26 26
40 39 42 40 40 39 38 35 32 31 30 28 30 33 31 31 30 31 32 33 35 33 29 30 27 26 29 27 26 28 25 28 31 31 32 31 30 28 27 29 30 27 25 24 24 24 25 26 26 26 25 26 27 27
39 40 42 40 39 36 34 34 31 29 29 31 29 30 31 32 32 32 33 33 32 31 31 28 29 26 24 23 25 29 31 31 32 32 31 29 28 27 26 26 27 26 25 25 25 26 26 26 26 26 27 27 28 27
39 39 40 39 38 34 31 30 30 27 29 30 30 30 30 30 30 32 32 33 31 32 29 28 26 25 26 27 29 31 31 28 26 27 26 27 26 26 26 26 26 26 27 27 27 27 28 28 28 28 28 28 27 27
37 38 38 38 36 31 27 28 30 26 26 29 30 28 28 28 29 31 32 32 31 30 27 26 26 28 27 27 30 30 29 27 26 25 24 24 27 27 28 27 27 27 27 27 27 27 27 27 27 27 27 26 26 27
36 36 37 37 32 30 29 28 27 27 27 28 28 27 26 27 26 26 26 29 25 26 26 28 28 28 28 28 28 27 26 26 25 24 24 26 27 26 25 25 24 24 24 23 24 23 23 22 22 23 23 24 25 25
35 36 34 34 30 28 27 29 28 28 27 28 26 26 24 24 24 25 27 24 23 25 27 27 28 29 29 27 27 27 27 26 25 25 25 25 21 19 21 23 21 20 20 19 19 20 19 19 19 19 19 20 21 23
35 34 31 30 26 26 26 31 25 24 22 26 28 23 23 23 26 26 22 22 26 28 28 28 28 28 26 24 22 22 23 22 21 20 21 21 21 21 21 20 18 15 14 15 16 15 14 14 14 14 16 16 17 19
33 29 27 26 25 23 26 27 27 26 23 25 24 21 21 22 24 22 20 24 26 26 24 26 26 25 24 22 20 19 18 19 20 19 20 20 19 17 17 17 15 13 11 11 12 11 11 10 10 11 12 12 13 14
24 23 24 22 24 22 21 22 23 23 21 22 21 19 22 21 19 18 19 22 23 23 23 23 24 24 22 20 20 18 17 18 18 17 17 14 11 10 10 11 12 11 9 7 6 7 7 7 7 8 8 10 10 12
21 22 22 21 21 22 20 19 20 21 21 21 21 22 21 19 18 18 20 21 21 22 22 22 21 20 19 20 18 14 12 14 15 15 14 11 9 6 5 4 4 4 8 7 5 3 4 5 5 5 6 7 8 10
20 20 24 26 26 26 23 23 25 23 21 21 20 21 21 17 16 18 20 20 21 21 22 22 21 20 19 15 12 10 8 9 10 13 12 10 9 8 6 4 3 5 6 5 4 3 3 3 2 3 4 6 8 11
24 24 21 23 25 26 23 22 22 21 22 24 22 19 18 16 15 16 19 21 20 20 18 17 17 17 15 12 9 7 6 6 12 10 9 6 5 7 6 5 4 5 3 3 2 4 4 3 3 4 5 7 7 7
24 26 25 22 23 23 22 22 22 24 25 23 18 17 15 14 13 15 16 18 19 16 13 12 12 12 11 10 9 8 6 4 2 1 1 1 1 3 5 1 1 1 1 1 3 4 5 6 6 6 8 9 7 5
23 25 21 19 20 20 23 24 24 25 25 20 17 15 13 12 12 14 14 13 12 10 8 7 6 7 7 6 5 6 6 5 5 4 2 1 3 5 2 2 1 1 0 0 0 -1 -0 0 2 3 1 1 1 1
24 23 19 19 21 23 24 25 25 25 26 23 18 13 9 9 11 11 10 8 8 7 6 5 5 4 5 5 4 4 4 2 3 4 4 4 4 2 2 1 1 -0 -1 -1 -4 -3 -2 -0 -1 -2 -3 -3 -3 -3
21 21 20 17 20 22 18 19 18 17 19 19 16 11 9 6 5 8 10 7 5 5 3 2 4 5 5 3 1 1 2 2 3 3 3 4 4 3 1 0 -1 -1 -4 -6 -6 -4 -3 -3 -4 -5 -6 -6 -6 -6
17 15 15 15 17 18 16 14 11 13 15 15 12 10 7 6 5 7 8 4 5 4 2 2 3 3 3 0 -0 -0 1 1 1 3 4 4 4 3 0 -2 -3 -3 -4 -6 -6 -5 -4 -5 -6 -7 -7 -8 -8 -8

GFSWCAN_sfc_30mbdewp_030.txt.gz
Dewpoint
48 48 47 47 47 49 50 50 50 49 49 49 50 50 52 52 51 52 52 52 44 44 46 47 46 40 39 38 34 39 36 36 31 28 24 22 21 25 25 26 30 25 25 25 24 22 13 25 31 26 26 29 34 35
48 47 47 47 49 50 50 50 50 50 48 49 49 50 51 51 51 51 49 53 50 45 46 48 47 48 47 40 40 39 35 36 34 30 26 29 26 31 28 18 31 23 26 21 24 19 26 28 32 33 32 31 36 37
47 47 48 49 50 50 50 50 49 48 48 49 50 51 52 52 50 51 50 48 45 43 44 44 45 47 47 48 45 36 38 39 36 35 31 31 20 32 22 26 29 31 30 25 26 24 28 30 31 34 36 35 38 39
47 48 49 49 49 49 49 49 48 48 48 49 50 50 51 51 50 50 48 49 40 40 39 43 46 44 46 49 48 44 43 41 39 37 32 29 21 32 26 28 29 30 31 29 29 29 31 33 36 34 38 39 39 40
48 48 49 49 49 49 48 48 48 48 48 49 50 50 50 50 50 50 49 49 47 31 36 42 44 44 46 48 46 45 42 41 39 36 34 30 30 32 34 33 29 32 28 26 22 25 29 29 35 39 39 39 39 38
48 48 48 49 49 48 48 48 48 48 48 47 48 49 52 51 47 38 37 47 49 44 38 37 42 42 44 45 45 46 45 42 40 39 37 36 38 34 33 33 32 34 35 32 29 34 33 36 39 40 39 39 37 32
48 48 48 48 48 48 48 47 48 49 49 47 47 47 47 47 47 38 36 46 46 44 35 37 38 40 41 43 42 43 44 43 41 39 36 36 39 37 34 32 33 34 35 37 38 39 38 39 38 40 39 31 23 22
47 48 48 48 48 48 48 47 48 49 50 49 48 48 48 48 47 46 47 46 46 38 34 30 34 38 41 41 41 40 40 41 40 39 39 37 37 36 35 37 37 38 39 39 40 40 39 40 40 30 24 21 22 25
47 47 48 48 47 48 48 47 47 49 49 48 46 46 45 45 45 45 46 45 44 38 31 32 26 28 40 38 38 38 38 39 38 39 38 38 35 34 35 33 35 36 37 38 40 39 36 31 23 23 27 30 31 30
45 45 47 48 48 47 47 47 48 48 47 45 43 40 40 44 44 44 41 38 38 40 39 34 35 34 39 37 36 36 35 35 34 35 38 36 35 34 26 26 30 34 37 39 38 29 26 29 32 33 33 33 30 25
44 45 46 46 47 47 48 48 47 47 45 43 41 41 44 42 41 37 36 35 37 35 37 36 36 35 38 36 35 33 33 32 29 29 33 29 29 29 28 33 34 34 34 34 34 34 34 34 32 31 30 31 32 30
43 44 44 45 46 46 46 45 45 44 43 43 42 41 38 37 36 34 32 35 35 33 36 37 37 38 37 36 34 34 31 30 27 31 30 26 26 26 31 33 35 35 35 34 34 33 33 33 33 34 33 30 27 25
42 42 42 43 44 45 44 44 43 43 42 39 37 37 35 35 33 31 30 32 32 33 34 35 35 35 37 36 34 34 30 29 33 29 28 29 29 33 34 34 33 35 35 35 33 33 34 33 31 26 21 22 23 24
41 41 42 41 41 42 44 44 43 41 39 36 35 34 32 30 30 30 31 32 32 33 34 34 33 34 34 34 32 31 31 32 28 25 24 29 31 32 23 23 22 23 23 23 22 22 23 24 23 24 24 25 26 25
40 41 40 40 41 40 40 41 40 39 36 32 32 27 27 29 30 31 32 32 32 34 34 34 33 34 32 30 30 29 26 24 24 23 28 30 30 26 31 31 26 24 23 23 24 23 23 24 24 24 25 26 26 26
40 39 41 41 40 39 39 36 35 34 32 31 30 28 30 30 29 31 32 31 33 33 34 34 31 29 27 28 26 25 24 21 24 29 32 32 31 31 32 34 27 29 27 25 25 25 25 24 24 25 26 26 25 25
40 39 41 40 40 37 37 33 31 30 29 29 29 32 31 31 30 31 32 32 35 33 30 29 27 26 28 26 25 27 24 27 30 32 33 31 29 31 33 30 30 26 25 25 25 26 26 27 26 26 27 28 28 28
37 38 40 39 38 34 33 32 29 29 28 30 29 30 31 32 31 32 32 32 32 31 30 27 29 26 24 23 24 27 29 31 31 32 32 30 28 27 27 26 27 26 26 27 27 28 27 27 27 27 27 26 25 25
38 38 38 38 36 32 29 30 29 27 28 30 30 30 30 30 30 32 32 32 31 30 29 27 24 24 25 27 28 30 31 30 30 29 27 27 26 26 27 27 27 27 27 27 26 26 26 26 24 22 23 23 22 23
36 36 37 37 34 28 27 28 29 27 27 29 29 28 28 28 30 30 30 31 30 28 27 25 26 27 26 27 28 30 29 28 26 24 24 26 27 25 24 24 24 24 23 23 23 21 20 19 20 19 18 18 19 20
34 35 36 33 29 29 29 28 26 27 28 27 28 27 26 27 26 26 26 27 24 25 26 27 27 27 27 27 27 26 26 26 24 23 25 24 23 22 23 22 21 21 19 18 18 17 15 15 16 16 15 15 17 16
34 35 32 30 28 26 28 30 28 28 27 28 26 26 24 24 24 25 26 23 23 25 26 28 29 29 27 26 25 25 25 24 23 22 21 21 19 20 19 17 15 14 14 14 14 14 12 12 12 11 11 12 13 14
34 32 30 27 24 24 26 30 24 24 22 26 27 23 22 23 26 26 22 23 26 27 27 28 26 26 23 22 20 20 21 19 18 19 20 20 19 19 18 14 12 8 7 9 10 11 10 9 8 7 8 8 8 9
31 28 26 25 23 23 22 25 26 24 25 25 24 20 20 23 25 22 19 23 26 25 26 26 24 23 22 19 17 16 18 19 18 17 18 18 15 14 14 14 11 9 7 6 5 4 4 4 5 5 4 4 5 6
20 23 23 21 23 20 19 20 21 22 20 21 21 19 22 21 18 17 17 21 22 22 22 24 25 23 21 20 18 15 15 18 17 14 13 10 8 7 7 7 8 9 7 4 2 1 1 2 2 2 2 2 3 4
20 21 21 20 20 20 19 18 19 20 20 21 21 21 21 20 18 17 18 19 20 20 20 21 20 19 18 19 16 14 11 11 16 12 10 8 5 2 1 0 0 1 5 4 1 -0 -0 1 1 0 0 1 3 5
19 20 22 25 25 24 21 21 22 21 20 20 20 20 20 17 15 16 19 19 19 19 20 21 21 19 15 13 10 8 10 11 13 12 10 9 8 6 3 1 0 2 4 3 1 -1 -2 -1 -1 -0 0 2 3 5
23 22 20 22 23 25 22 22 21 21 22 23 22 18 17 15 13 15 17 19 18 17 15 15 14 13 11 9 8 7 9 10 9 8 7 6 5 5 3 2 1 3 1 -0 -1 -0 -0 -0 1 2 2 3 4 3
23 24 24 21 22 22 22 21 21 23 24 23 19 16 13 12 11 12 14 16 16 14 12 10 10 10 8 7 5 4 3 3 2 0 -0 -0 -0 2 4 1 -1 -1 -2 -2 -1 1 3 4 3 3 0 0 1 1
22 24 21 20 20 19 21 24 22 24 22 19 16 14 11 10 10 12 13 12 10 8 6 6 6 7 6 5 4 4 2 1 3 2 1 0 1 3 1 -0 -1 -1 -3 -4 -6 -5 -3 -3 -3 -5 -6 -6 -6 -6
24 23 19 18 20 22 23 25 25 26 24 17 15 11 9 8 9 9 8 6 6 5 5 4 4 2 3 3 3 2 2 0 0 2 1 0 0 1 0 -0 -2 -5 -5 -7 -7 -6 -6 -5 -6 -7 -7 -8 -8 -8
21 19 18 16 19 18 16 17 16 17 17 19 12 9 6 5 4 7 6 6 3 1 1 -0 3 4 2 1 -0 -1 0 1 1 1 1 1 2 1 -0 -2 -4 -5 -5 -6 -8 -7 -7 -7 -8 -9 -9 -9 -10 -10
15 15 14 15 16 17 12 10 7 12 12 12 8 7 4 5 3 6 5 1 3 1 1 1 2 1 2 1 -1 -1 -1 -2 -3 -1 1 0 0 1 -1 -3 -6 -6 -6 -6 -7 -8 -7 -8 -8 -9 -10 -11 -11 -12

GFSWCAN_sfc_30mbdewp_033.txt.gz
Dewpoint
48 48 47 47 47 47 49 49 48 48 48 49 49 50 49 49 51 52 51 51 45 44 46 46 45 38 39 38 34 39 35 35 30 28 27 24 22 23 23 25 28 24 24 24 23 20 12 25 30 23 24 28 31 35
47 47 47 47 49 49 49 49 48 48 48 49 50 50 48 49 50 52 48 52 49 46 46 47 47 47 46 39 40 39 35 36 34 31 27 27 26 29 26 20 31 22 26 21 23 18 25 26 31 33 33 31 32 36
46 47 48 49 49 49 49 48 47 48 49 50 51 51 49 49 51 52 50 48 46 44 44 45 45 46 47 47 46 36 36 39 34 35 30 28 19 30 21 25 28 30 30 27 25 24 27 29 30 31 33 33 35 38
47 48 49 49 49 48 47 48 48 49 49 50 51 51 51 50 51 49 46 47 43 41 40 42 45 44 46 49 48 43 40 40 38 36 30 27 21 31 26 27 28 28 30 29 28 28 29 30 33 34 35 37 38 39
48 49 49 48 47 47 47 47 48 48 49 50 50 50 50 50 49 49 49 48 46 35 39 41 43 44 45 46 44 42 40 39 37 34 31 27 30 31 33 31 27 32 28 26 23 26 27 28 33 38 38 38 39 39
48 48 48 47 47 47 47 47 48 48 49 50 51 50 50 49 48 43 40 47 46 44 41 38 41 42 43 44 44 44 44 41 40 38 36 35 38 34 32 30 33 35 35 34 31 35 35 36 37 39 39 39 36 33
48 47 47 47 47 47 47 48 48 47 47 47 48 48 48 48 47 36 35 45 45 43 35 37 38 39 41 43 42 42 43 42 41 38 36 37 38 36 33 31 36 37 38 39 39 39 37 38 39 39 31 26 25 24
48 47 47 47 46 47 48 49 49 48 48 48 47 47 47 47 47 46 47 45 45 35 33 30 34 38 41 40 39 40 40 41 40 38 38 36 37 36 34 32 31 34 36 38 39 40 39 33 26 24 24 28 31 32
47 47 47 47 46 47 48 48 48 47 46 46 46 46 45 45 44 45 45 44 43 35 29 29 25 28 40 37 37 38 39 38 38 37 37 38 35 31 26 27 30 32 34 36 31 27 26 29 30 31 31 31 30 30
47 47 47 47 47 47 48 48 47 46 45 44 42 39 39 44 44 43 39 37 38 38 39 32 35 33 38 37 36 36 36 35 33 34 38 36 31 26 32 33 34 34 34 36 34 30 32 31 31 31 31 32 32 32
46 47 47 47 47 47 47 47 46 45 44 42 41 42 44 42 40 36 35 34 35 34 36 36 36 34 37 36 34 34 33 32 30 30 33 30 28 25 33 34 35 35 35 35 34 34 33 33 32 32 32 33 34 34
44 45 45 46 46 46 47 48 46 43 42 42 43 41 38 37 35 33 33 34 33 32 35 36 36 37 36 36 34 34 30 30 27 31 29 27 24 32 34 34 35 35 35 35 35 34 34 32 33 34 34 33 30 28
43 43 43 44 44 44 43 43 43 42 42 39 38 36 35 34 32 29 29 31 31 33 35 35 35 35 36 36 34 33 30 29 32 29 28 28 29 33 33 33 33 34 34 34 33 34 33 33 32 28 24 24 26 26
41 42 42 42 43 44 43 41 40 40 38 35 34 32 30 31 30 31 31 32 31 33 34 35 33 35 34 34 33 31 30 32 27 25 24 28 31 27 26 24 23 23 23 23 22 23 23 24 24 25 25 25 25 25
41 40 40 41 41 41 42 41 39 38 35 33 30 27 27 29 30 31 32 32 32 34 34 34 34 34 32 31 30 29 26 24 24 23 27 29 30 26 31 27 24 25 24 24 24 24 24 24 24 25 26 26 26 26
39 38 38 41 40 39 37 37 36 36 34 32 30 28 30 29 29 31 32 31 34 33 34 34 31 30 27 28 26 25 24 22 24 29 30 30 29 32 32 33 28 28 25 25 25 26 26 26 26 27 27 27 25 25
38 37 39 40 38 36 35 32 32 30 31 31 29 32 31 31 30 31 32 32 34 33 29 29 27 26 28 25 24 27 23 25 30 31 32 33 32 32 33 33 29 26 26 27 28 28 27 27 27 25 23 23 23 24
35 37 39 39 36 33 32 31 29 29 28 29 29 29 30 31 31 31 31 32 32 31 30 28 28 26 24 22 23 27 29 31 32 32 32 29 29 30 29 27 27 28 27 27 26 25 24 22 19 19 19 18 19 20
37 37 37 37 34 30 29 29 28 27 28 30 30 30 30 30 31 32 32 32 30 29 29 26 24 24 25 26 27 29 30 30 30 28 27 28 27 27 27 26 25 24 24 22 20 19 19 19 17 16 15 14 15 16
35 36 36 34 33 28 27 27 29 28 27 29 29 28 28 28 30 30 29 29 27 27 26 25 26 26 26 27 28 30 30 28 26 25 24 25 24 23 22 22 21 20 19 18 16 14 13 13 13 12 11 11 12 11
32 34 34 31 28 29 28 27 27 28 28 27 28 27 26 28 27 26 26 26 24 25 26 26 26 26 27 26 26 26 26 26 24 24 25 22 22 20 18 18 17 15 13 13 13 11 11 10 10 9 9 9 9 10
33 34 30 27 26 27 28 30 28 28 28 27 26 26 24 24 25 26 26 23 23 25 26 28 29 28 25 24 23 23 23 22 22 21 21 21 20 18 14 12 10 11 10 9 9 9 8 7 7 6 6 6 7 7
32 29 27 24 24 24 25 28 23 24 21 25 26 21 21 23 26 26 23 24 26 27 27 27 26 25 23 22 20 19 19 19 19 19 18 18 18 16 13 11 9 7 6 5 5 4 4 4 4 4 4 4 4 5
28 25 24 23 22 22 21 23 24 22 25 24 23 20 21 23 24 21 19 23 25 26 26 25 24 22 20 17 17 18 19 17 16 15 16 15 13 12 12 10 8 6 4 4 3 2 1 1 1 1 1 1 2 3
18 21 21 20 21 19 18 19 20 20 20 20 21 20 21 21 18 16 16 20 20 20 21 25 24 23 18 16 16 16 16 18 16 12 10 9 8 7 5 4 6 5 4 3 2 1 0 -0 -0 0 0 1 1 2
18 20 20 18 19 19 18 18 18 19 19 20 19 19 19 19 16 14 16 17 19 19 19 20 19 17 16 17 15 13 11 13 13 10 8 6 4 3 2 0 0 1 3 3 0 -1 -0 -1 -1 -1 -0 1 1 1
18 20 21 24 23 23 20 19 20 20 19 19 19 19 19 16 13 14 18 17 18 17 17 17 20 17 13 11 10 11 12 12 12 10 9 7 5 4 2 1 0 2 3 3 -0 -2 -3 -3 -3 -2 -1 1 2 2
22 21 19 21 22 23 21 20 20 19 20 22 21 17 16 13 12 13 15 17 16 15 13 12 12 11 10 8 8 10 9 9 8 7 6 6 5 4 3 2 1 2 -0 -1 -2 -2 -2 -2 -2 -0 1 -0 -0 1
21 22 22 19 20 20 20 20 20 22 23 22 19 15 11 10 10 10 13 14 15 13 11 9 8 8 7 5 3 3 3 4 3 -1 -1 -1 -0 1 3 2 0 -1 -2 -3 -3 -1 2 3 2 -0 -3 -4 -4 -4
21 22 20 17 18 17 20 22 22 22 19 17 15 13 10 9 9 10 11 10 9 7 5 5 5 7 4 4 3 3 2 1 2 1 -0 -1 -0 1 1 0 -1 -1 -4 -5 -5 -6 -4 -4 -5 -6 -7 -7 -8 -8
22 22 20 17 18 20 20 19 24 24 20 14 12 9 7 7 8 7 6 5 5 4 4 4 3 0 3 2 2 1 2 0 -2 -1 -1 -1 -1 -0 0 -0 -2 -5 -6 -6 -6 -7 -7 -6 -8 -8 -8 -9 -10 -10
18 17 17 15 17 15 14 16 14 15 16 15 8 6 5 4 3 5 5 4 1 1 -0 -0 3 4 2 0 -2 -2 -1 0 1 0 -1 -1 -0 0 -1 -2 -5 -7 -6 -6 -7 -7 -8 -8 -8 -9 -10 -10 -11 -12
14 13 14 14 15 16 10 7 5 10 10 8 6 4 3 4 2 5 3 1 3 1 1 1 1 -0 0 1 -1 -1 -2 -2 -4 -3 -3 -3 -3 -3 -3 -4 -6 -6 -6 -6 -7 -8 -8 -9 -9 -10 -11 -12 -12 -13

GFSWCAN_sfc_30mbdewp_039.txt.gz
Dewpoint
40 40 41 42 42 43 43 43 44 47 47 48 48 48 48 48 49 50 54 54 45 43 43 45 37 32 39 35 40 39 38 39 38 37 38 36 37 30 28 26 31 30 33 31 34 32 22 23 26 22 31 27 29 30
41 42 42 43 43 43 43 46 47 48 48 47 47 47 48 48 50 50 52 52 51 46 47 50 49 49 48 45 39 40 37 39 38 36 42 42 36 34 35 27 29 27 29 29 28 26 26 26 24 28 29 30 30 31
44 44 44 44 44 45 47 47 47 47 47 47 47 48 48 49 50 51 52 52 49 48 46 46 46 49 49 50 50 40 44 40 41 45 42 43 34 38 33 32 31 29 31 28 26 23 24 25 28 29 32 33 34 35
45 45 45 46 47 47 47 47 47 48 48 48 48 48 49 50 50 52 51 53 50 49 46 45 48 47 48 49 48 48 45 46 43 43 46 37 37 37 37 33 29 31 30 27 28 26 29 27 33 37 38 38 37 38
46 46 46 46 46 47 47 47 47 47 48 48 49 49 49 50 51 53 52 51 51 44 44 45 46 47 47 46 45 45 44 42 41 42 35 41 38 39 39 36 34 30 31 32 30 34 36 35 39 40 39 39 39 39
46 46 46 46 46 47 48 48 47 47 47 48 49 49 49 50 51 50 44 49 49 50 47 44 47 46 46 46 45 44 44 43 42 44 44 39 39 40 38 33 37 36 37 37 37 39 39 39 36 35 34 33 32 32
46 47 47 47 47 48 48 48 48 48 48 48 48 49 49 50 50 46 41 48 48 49 47 43 43 45 46 46 45 45 46 45 44 43 42 42 39 40 40 35 35 35 35 38 38 39 39 34 33 34 35 34 34 35
46 46 46 46 47 47 48 48 48 48 48 48 48 47 47 47 47 45 45 45 47 42 44 41 41 45 46 45 43 45 46 45 43 41 42 41 40 42 38 34 35 35 37 35 34 35 34 33 34 33 33 33 33 33
46 46 46 45 45 45 46 47 47 47 47 47 48 48 49 50 46 46 44 47 48 45 39 40 40 37 43 41 43 44 44 40 42 40 40 40 38 37 33 33 35 36 36 35 35 34 33 32 32 32 32 32 32 33
47 47 47 46 45 44 45 45 44 45 45 47 47 42 42 47 43 45 44 44 43 43 41 37 40 38 40 41 39 40 40 38 35 38 40 38 33 32 33 34 35 35 36 35 33 32 31 32 32 32 31 30 29 29
45 45 46 47 45 44 44 44 46 46 47 48 46 44 46 43 43 43 36 37 39 36 38 38 39 38 40 37 35 39 36 37 33 35 36 33 31 30 34 34 34 35 35 34 33 32 32 32 31 31 30 31 30 28
43 43 43 44 44 44 43 43 45 45 45 47 46 45 44 41 41 32 33 37 38 34 37 36 37 38 39 40 37 37 33 34 30 35 34 31 30 33 34 34 34 32 32 31 31 30 30 30 29 26 25 26 27 28
43 43 42 42 42 43 43 43 42 42 45 46 43 37 40 38 32 32 28 33 33 35 36 38 35 38 38 38 36 35 32 32 33 31 30 30 32 34 34 33 30 30 29 28 27 26 25 25 27 28 27 28 30 29
41 41 42 42 41 40 41 42 44 45 43 40 38 32 34 33 32 31 33 33 32 34 37 38 35 37 37 35 35 32 32 32 29 28 29 30 32 34 31 29 28 25 27 23 23 25 27 27 29 31 30 29 29 26
39 40 40 40 40 39 39 40 41 42 38 34 35 30 29 30 31 31 33 33 33 35 38 37 37 37 34 33 34 32 29 28 29 30 30 32 34 33 31 28 24 25 27 24 26 29 31 31 29 28 27 23 24 25
38 38 38 40 38 37 38 40 40 39 36 33 32 30 31 31 30 32 32 31 34 35 37 38 34 33 31 32 30 30 30 28 29 31 33 33 32 30 27 28 26 24 26 28 29 29 29 29 27 25 22 19 21 22
37 36 38 38 37 36 37 37 36 34 33 32 30 32 33 31 30 31 32 32 34 34 32 34 30 29 32 30 29 32 30 31 31 32 33 34 33 31 32 30 29 29 29 29 28 27 24 22 21 17 14 13 12 13
36 36 37 37 36 35 34 35 34 33 30 31 30 30 31 32 32 32 33 35 36 34 35 32 32 30 29 28 29 30 31 33 32 32 34 34 34 34 34 30 29 29 28 27 23 20 18 17 15 14 12 8 8 9
35 36 36 35 35 34 30 31 32 29 30 31 31 32 32 32 33 33 34 35 35 36 35 33 30 30 30 31 30 31 32 31 30 30 32 34 34 34 31 30 28 25 22 19 18 17 16 13 12 10 10 8 11 12
35 35 35 35 34 31 29 30 32 29 28 30 32 30 31 31 32 32 34 32 32 32 29 28 27 27 28 30 32 33 33 31 30 29 28 30 32 31 29 26 23 20 17 16 15 14 13 12 10 9 11 11 12 12
35 34 35 35 33 31 30 29 28 29 29 28 30 29 30 32 30 30 30 31 29 27 26 28 27 28 29 30 31 32 32 32 30 29 28 26 25 23 20 19 18 18 18 19 16 13 13 10 9 9 12 13 12 12
32 34 35 35 32 32 29 30 27 29 28 29 27 28 28 27 28 28 30 26 25 26 28 29 29 27 26 26 28 29 30 29 28 27 24 23 22 21 20 19 18 17 14 12 11 13 12 8 9 9 11 11 10 10
33 33 33 33 28 28 27 30 26 25 23 23 24 23 24 26 26 27 24 25 26 29 28 28 28 29 26 24 22 23 23 24 24 24 23 22 20 18 16 15 15 15 12 8 8 8 9 9 9 9 10 9 9 9
29 29 27 26 27 25 28 26 24 22 23 24 21 21 22 24 24 23 22 22 24 26 28 27 26 25 25 23 21 22 23 21 20 20 20 19 18 16 14 11 10 9 8 9 9 10 10 10 8 8 8 7 7 6
22 23 25 23 25 23 23 23 23 21 20 22 22 22 22 24 21 19 19 20 21 21 24 25 24 24 22 21 21 19 21 23 20 17 18 18 16 12 9 8 8 8 9 9 9 8 8 7 7 6 5 5 5 4
21 23 22 23 22 22 22 20 21 21 21 21 21 23 24 23 18 15 15 19 19 19 20 21 23 20 18 19 17 16 17 20 19 14 12 11 11 12 9 9 8 10 8 9 7 6 5 4 4 3 4 4 5 5
20 21 23 24 23 22 23 23 23 21 19 19 21 21 22 18 15 16 17 17 18 18 18 18 18 17 16 15 15 15 16 15 14 12 9 8 8 9 9 8 7 6 5 6 5 4 4 3 3 3 4 4 4 4
22 22 20 23 23 23 21 20 20 19 20 21 23 19 18 17 15 15 16 18 18 17 16 15 14 14 14 14 16 15 13 12 12 11 10 9 9 8 7 7 7 5 5 5 4 4 4 3 3 4 4 3 3 3
22 24 23 20 22 21 20 20 21 21 22 21 21 17 15 12 13 15 15 17 19 18 16 15 14 15 13 11 11 11 11 10 8 4 3 5 6 8 7 6 6 5 5 5 4 3 3 3 3 3 2 2 2 3
21 25 21 20 19 18 21 22 23 23 21 20 17 14 12 11 12 15 15 14 13 12 12 12 13 13 11 11 9 9 9 7 6 5 4 4 5 5 5 5 5 5 5 5 4 3 2 2 2 3 2 1 1 0
23 23 19 19 19 21 22 24 25 22 21 18 17 15 12 10 11 11 11 12 11 12 12 10 9 9 8 7 7 6 6 7 5 4 4 4 5 5 6 5 5 5 4 3 2 2 1 0 0 0 0 -1 -2 -2
20 19 17 16 19 21 21 20 20 20 20 17 14 13 12 12 8 8 9 12 10 9 7 8 8 7 7 7 7 7 3 5 4 4 3 4 4 5 4 4 4 4 3 2 1 1 1 -0 -1 -1 -1 -2 -3 -5
18 18 18 17 16 17 18 17 15 14 15 12 11 11 10 10 5 7 9 9 8 8 8 8 8 8 7 6 6 5 4 4 3 3 3 2 2 2 2 3 4 3 2 1 1 1 -0 -1 -2 -3 -4 -5 -5 -6